Wetterdaten: Samstag, 13.04.2013
Datum Zeit Temp. Aussen +5cm Feuchte Auss Luftdruck Regen Sonnenschein Regendauer UV Solar Windben
13.04.2013 00:00 9,7 C 7,9 C 84 % 1004,9 hPa 0,0 l/m 0 min 0 min 0,0 UV-I 0 W/m 7,7 km/h (2 Bft)
13.04.2013 00:02 9,7 C 7,9 C 84 % 1005,0 hPa 0,0 l/m 0 min 0 min 0,0 UV-I 0 W/m 5,1 km/h (1 Bft)
13.04.2013 00:06 9,6 C 7,9 C 84 % 1005,0 hPa 0,0 l/m 0 min 0 min 0,0 UV-I 0 W/m 18,0 km/h (3 Bft)
13.04.2013 00:08 9,6 C 7,9 C 84 % 1005,0 hPa 0,0 l/m 0 min 0 min 0,0 UV-I 0 W/m 20,6 km/h (4 Bft)
13.04.2013 00:10 9,6 C 7,9 C 84 % 1005,1 hPa 0,0 l/m 0 min 0 min 0,0 UV-I 0 W/m 18,0 km/h (3 Bft)
13.04.2013 00:12 9,5 C 7,9 C 84 % 1005,1 hPa 0,0 l/m 0 min 0 min 0,0 UV-I 0 W/m 7,7 km/h (2 Bft)
13.04.2013 00:14 9,5 C 7,9 C 84 % 1005,2 hPa 0,0 l/m 0 min 0 min 0,0 UV-I 0 W/m 12,9 km/h (3 Bft)
13.04.2013 00:16 9,5 C 7,9 C 85 % 1005,2 hPa 0,0 l/m 0 min 0 min 0,0 UV-I 0 W/m 12,9 km/h (3 Bft)
13.04.2013 00:18 9,4 C 7,9 C 85 % 1005,3 hPa 0,0 l/m 0 min 0 min 0,0 UV-I 0 W/m 10,3 km/h (2 Bft)
13.04.2013 00:20 9,4 C 7,9 C 85 % 1005,2 hPa 0,0 l/m 0 min 0 min 0,0 UV-I 0 W/m 12,9 km/h (3 Bft)
13.04.2013 00:22 9,4 C 7,9 C 85 % 1005,2 hPa 0,0 l/m 0 min 0 min 0,0 UV-I 0 W/m 10,3 km/h (2 Bft)
13.04.2013 00:24 9,4 C 7,9 C 85 % 1005,3 hPa 0,0 l/m 0 min 0 min 0,0 UV-I 0 W/m 0,0 km/h (0 Bft)
13.04.2013 00:26 9,4 C 7,9 C 85 % 1005,3 hPa 0,0 l/m 0 min 0 min 0,0 UV-I 0 W/m 15,4 km/h (3 Bft)
13.04.2013 00:28 9,4 C 7,9 C 85 % 1005,4 hPa 0,0 l/m 0 min 0 min 0,0 UV-I 0 W/m 10,3 km/h (2 Bft)
13.04.2013 00:30 9,4 C 7,9 C 85 % 1005,5 hPa 0,0 l/m 0 min 0 min 0,0 UV-I 0 W/m 20,6 km/h (4 Bft)
13.04.2013 00:32 9,4 C 7,9 C 85 % 1005,4 hPa 0,0 l/m 0 min 0 min 0,0 UV-I 0 W/m 10,3 km/h (2 Bft)
13.04.2013 00:34 9,4 C 7,9 C 84 % 1005,5 hPa 0,0 l/m 0 min 0 min 0,0 UV-I 0 W/m 12,9 km/h (3 Bft)
13.04.2013 00:36 9,4 C 8,4 C 84 % 1005,5 hPa 0,0 l/m 0 min 0 min 0,0 UV-I 0 W/m 10,3 km/h (2 Bft)
13.04.2013 00:38 9,4 C 8,4 C 84 % 1005,5 hPa 0,0 l/m 0 min 0 min 0,0 UV-I 0 W/m 18,0 km/h (3 Bft)
13.04.2013 00:40 9,4 C 8,4 C 83 % 1005,5 hPa 0,0 l/m 0 min 0 min 0,0 UV-I 0 W/m 18,0 km/h (3 Bft)
13.04.2013 00:42 9,4 C 8,4 C 83 % 1005,6 hPa 0,0 l/m 0 min 0 min 0,0 UV-I 0 W/m 10,3 km/h (2 Bft)
13.04.2013 00:44 9,4 C 8,4 C 83 % 1005,7 hPa 0,0 l/m 0 min 0 min 0,0 UV-I 0 W/m 5,1 km/h (1 Bft)
13.04.2013 00:46 9,4 C 8,4 C 83 % 1005,7 hPa 0,0 l/m 0 min 0 min 0,0 UV-I 0 W/m 12,9 km/h (3 Bft)
13.04.2013 00:48 9,4 C 8,4 C 83 % 1005,8 hPa 0,0 l/m 0 min 0 min 0,0 UV-I 0 W/m 15,4 km/h (3 Bft)
13.04.2013 00:50 9,4 C 8,4 C 83 % 1005,7 hPa 0,0 l/m 0 min 0 min 0,0 UV-I 0 W/m 10,3 km/h (2 Bft)
13.04.2013 00:52 9,4 C 8,4 C 83 % 1005,7 hPa 0,0 l/m 0 min 0 min 0,0 UV-I 0 W/m 18,0 km/h (3 Bft)
13.04.2013 00:54 9,4 C 8,4 C 83 % 1005,7 hPa 0,0 l/m 0 min 0 min 0,0 UV-I 0 W/m 15,4 km/h (3 Bft)
13.04.2013 00:56 9,4 C 8,4 C 83 % 1005,7 hPa 0,0 l/m 0 min 0 min 0,0 UV-I 0 W/m 12,9 km/h (3 Bft)
13.04.2013 00:58 9,5 C 8,4 C 82 % 1005,7 hPa 0,0 l/m 0 min 0 min 0,0 UV-I 0 W/m 20,6 km/h (4 Bft)
13.04.2013 01:00 9,5 C 8,4 C 82 % 1005,8 hPa 0,0 l/m 0 min 0 min 0,0 UV-I 0 W/m 30,9 km/h (5 Bft)
13.04.2013 01:02 9,5 C 8,4 C 82 % 1005,8 hPa 0,0 l/m 0 min 0 min 0,0 UV-I 0 W/m 7,7 km/h (2 Bft)
13.04.2013 01:04 9,5 C 8,4 C 82 % 1005,9 hPa 0,0 l/m 0 min 0 min 0,0 UV-I 0 W/m 12,9 km/h (3 Bft)
13.04.2013 01:06 9,5 C 8,4 C 82 % 1005,9 hPa 0,0 l/m 0 min 0 min 0,0 UV-I 0 W/m 7,7 km/h (2 Bft)
13.04.2013 01:08 9,5 C 8,4 C 82 % 1005,9 hPa 0,0 l/m 0 min 0 min 0,0 UV-I 0 W/m 18,0 km/h (3 Bft)
13.04.2013 01:10 9,5 C 8,4 C 82 % 1006,0 hPa 0,0 l/m 0 min 0 min 0,0 UV-I 0 W/m 20,6 km/h (4 Bft)
13.04.2013 01:12 9,5 C 8,4 C 82 % 1006,0 hPa 0,0 l/m 0 min 0 min 0,0 UV-I 0 W/m 15,4 km/h (3 Bft)
13.04.2013 01:14 9,5 C 8,4 C 82 % 1006,0 hPa 0,0 l/m 0 min 0 min 0,0 UV-I 0 W/m 10,3 km/h (2 Bft)
13.04.2013 01:16 9,5 C 8,4 C 82 % 1006,1 hPa 0,0 l/m 0 min 0 min 0,0 UV-I 0 W/m 10,3 km/h (2 Bft)
13.04.2013 01:18 9,5 C 7,9 C 82 % 1006,1 hPa 0,0 l/m 0 min 0 min 0,0 UV-I 0 W/m 12,9 km/h (3 Bft)
13.04.2013 01:20 9,5 C 7,9 C 82 % 1006,1 hPa 0,0 l/m 0 min 0 min 0,0 UV-I 0 W/m 10,3 km/h (2 Bft)
13.04.2013 01:22 9,4 C 7,9 C 82 % 1006,2 hPa 0,0 l/m 0 min 0 min 0,0 UV-I 0 W/m 12,9 km/h (3 Bft)
13.04.2013 01:24 9,5 C 8,4 C 82 % 1006,2 hPa 0,0 l/m 0 min 0 min 0,0 UV-I 0 W/m 30,9 km/h (5 Bft)
13.04.2013 01:26 9,4 C 8,4 C 82 % 1006,2 hPa 0,0 l/m 0 min 0 min 0,0 UV-I 0 W/m 28,3 km/h (4 Bft)
13.04.2013 01:28 9,4 C 8,4 C 82 % 1006,3 hPa 0,0 l/m 0 min 0 min 0,0 UV-I 0 W/m 18,0 km/h (3 Bft)
13.04.2013 01:30 9,4 C 8,4 C 82 % 1006,3 hPa 0,0 l/m 0 min 0 min 0,0 UV-I 0 W/m 7,7 km/h (2 Bft)
13.04.2013 01:32 9,4 C 8,4 C 82 % 1006,4 hPa 0,0 l/m 0 min 0 min 0,0 UV-I 0 W/m 15,4 km/h (3 Bft)
13.04.2013 01:34 9,4 C 8,4 C 82 % 1006,5 hPa 0,0 l/m 0 min 0 min 0,0 UV-I 0 W/m 23,2 km/h (4 Bft)
13.04.2013 01:36 9,4 C 8,4 C 82 % 1006,5 hPa 0,0 l/m 0 min 0 min 0,0 UV-I 0 W/m 15,4 km/h (3 Bft)
13.04.2013 01:38 9,4 C 8,4 C 82 % 1006,5 hPa 0,0 l/m 0 min 0 min 0,0 UV-I 0 W/m 10,3 km/h (2 Bft)
13.04.2013 01:40 9,4 C 8,4 C 82 % 1006,5 hPa 0,0 l/m 0 min 0 min 0,0 UV-I 0 W/m 15,4 km/h (3 Bft)
13.04.2013 01:42 9,4 C 8,4 C 82 % 1006,6 hPa 0,0 l/m 0 min 0 min 0,0 UV-I 0 W/m 12,9 km/h (3 Bft)
13.04.2013 01:44 9,4 C 8,4 C 82 % 1006,6 hPa 0,0 l/m 0 min 0 min 0,0 UV-I 0 W/m 10,3 km/h (2 Bft)
13.04.2013 01:46 9,4 C 8,4 C 82 % 1006,7 hPa 0,0 l/m 0 min 0 min 0,0 UV-I 0 W/m 20,6 km/h (4 Bft)
13.04.2013 01:48 9,4 C 8,4 C 82 % 1006,6 hPa 0,0 l/m 0 min 0 min 0,0 UV-I 0 W/m 18,0 km/h (3 Bft)
13.04.2013 01:50 9,4 C 7,9 C 82 % 1006,6 hPa 0,0 l/m 0 min 0 min 0,0 UV-I 0 W/m 10,3 km/h (2 Bft)
13.04.2013 01:52 9,4 C 8,4 C 82 % 1006,6 hPa 0,0 l/m 0 min 0 min 0,0 UV-I 0 W/m 18,0 km/h (3 Bft)
13.04.2013 01:54 9,4 C 8,4 C 82 % 1006,6 hPa 0,0 l/m 0 min 0 min 0,0 UV-I 0 W/m 23,2 km/h (4 Bft)
13.04.2013 01:56 9,4 C 8,4 C 82 % 1006,7 hPa 0,0 l/m 0 min 0 min 0,0 UV-I 0 W/m 18,0 km/h (3 Bft)
13.04.2013 01:58 9,4 C 7,9 C 82 % 1006,8 hPa 0,0 l/m 0 min 0 min 0,0 UV-I 0 W/m 15,4 km/h (3 Bft)
13.04.2013 02:00 9,4 C 7,9 C 82 % 1006,8 hPa 0,0 l/m 0 min 2 min 0,0 UV-I 0 W/m 18,0 km/h (3 Bft)
13.04.2013 02:02 9,4 C 7,3 C 83 % 1006,9 hPa 0,0 l/m 0 min 0 min 0,0 UV-I 0 W/m 15,4 km/h (3 Bft)
13.04.2013 02:04 9,3 C 7,3 C 83 % 1006,9 hPa 0,0 l/m 0 min 0 min 0,0 UV-I 0 W/m 12,9 km/h (3 Bft)
13.04.2013 02:06 9,3 C 7,3 C 83 % 1007,0 hPa 0,0 l/m 0 min 0 min 0,0 UV-I 0 W/m 18,0 km/h (3 Bft)
13.04.2013 02:08 9,3 C 7,3 C 84 % 1006,9 hPa 0,0 l/m 0 min 0 min 0,0 UV-I 0 W/m 15,4 km/h (3 Bft)
13.04.2013 02:10 9,3 C 7,3 C 84 % 1006,9 hPa 0,0 l/m 0 min 0 min 0,0 UV-I 0 W/m 10,3 km/h (2 Bft)
13.04.2013 02:12 9,2 C 7,3 C 84 % 1007,0 hPa 0,0 l/m 0 min 0 min 0,0 UV-I 0 W/m 15,4 km/h (3 Bft)
13.04.2013 02:14 9,2 C 7,9 C 84 % 1007,1 hPa 0,0 l/m 0 min 0 min 0,0 UV-I 0 W/m 7,7 km/h (2 Bft)
13.04.2013 02:16 9,2 C 7,9 C 85 % 1007,0 hPa 0,0 l/m 0 min 0 min 0,0 UV-I 0 W/m 20,6 km/h (4 Bft)
13.04.2013 02:18 9,2 C 7,9 C 85 % 1007,1 hPa 0,0 l/m 0 min 0 min 0,0 UV-I 0 W/m 12,9 km/h (3 Bft)
13.04.2013 02:20 9,1 C 7,9 C 85 % 1007,1 hPa 0,0 l/m 0 min 0 min 0,0 UV-I 0 W/m 12,9 km/h (3 Bft)
13.04.2013 02:22 9,1 C 7,9 C 85 % 1007,2 hPa 0,0 l/m 0 min 0 min 0,0 UV-I 0 W/m 10,3 km/h (2 Bft)
13.04.2013 02:24 9,1 C 7,9 C 85 % 1007,3 hPa 0,0 l/m 0 min 0 min 0,0 UV-I 0 W/m 10,3 km/h (2 Bft)
13.04.2013 02:26 9,1 C 7,9 C 85 % 1007,3 hPa 0,0 l/m 0 min 0 min 0,0 UV-I 0 W/m 10,3 km/h (2 Bft)
13.04.2013 02:28 9,1 C 7,9 C 86 % 1007,3 hPa 0,0 l/m 0 min 0 min 0,0 UV-I 0 W/m 12,9 km/h (3 Bft)
13.04.2013 02:30 9,1 C 7,9 C 86 % 1007,4 hPa 0,0 l/m 0 min 0 min 0,0 UV-I 0 W/m 15,4 km/h (3 Bft)
13.04.2013 02:32 9,1 C 7,9 C 86 % 1007,4 hPa 0,0 l/m 0 min 0 min 0,0 UV-I 0 W/m 18,0 km/h (3 Bft)
13.04.2013 02:34 9,1 C 7,9 C 86 % 1007,5 hPa 0,0 l/m 0 min 0 min 0,0 UV-I 0 W/m 18,0 km/h (3 Bft)
13.04.2013 02:36 9,1 C 7,9 C 86 % 1007,6 hPa 0,0 l/m 0 min 0 min 0,0 UV-I 0 W/m 15,4 km/h (3 Bft)
13.04.2013 02:38 9,1 C 7,9 C 86 % 1007,6 hPa 0,0 l/m 0 min 0 min 0,0 UV-I 0 W/m 20,6 km/h (4 Bft)
13.04.2013 02:40 9,1 C 7,9 C 86 % 1007,7 hPa 0,0 l/m 0 min 0 min 0,0 UV-I 0 W/m 15,4 km/h (3 Bft)
13.04.2013 02:42 9,1 C 7,9 C 86 % 1007,7 hPa 0,0 l/m 0 min 0 min 0,0 UV-I 0 W/m 15,4 km/h (3 Bft)
13.04.2013 02:44 9,1 C 7,9 C 87 % 1007,6 hPa 0,0 l/m 0 min 0 min 0,0 UV-I 0 W/m 18,0 km/h (3 Bft)
13.04.2013 02:46 9,1 C 7,9 C 87 % 1007,5 hPa 0,0 l/m 0 min 0 min 0,0 UV-I 0 W/m 28,3 km/h (4 Bft)
13.04.2013 02:48 9,1 C 7,9 C 87 % 1007,7 hPa 0,0 l/m 0 min 0 min 0,0 UV-I 0 W/m 10,3 km/h (2 Bft)
13.04.2013 02:50 9,1 C 7,9 C 87 % 1007,9 hPa 0,0 l/m 0 min 0 min 0,0 UV-I 0 W/m 23,2 km/h (4 Bft)
13.04.2013 02:52 9,1 C 7,9 C 87 % 1007,8 hPa 0,0 l/m 0 min 0 min 0,0 UV-I 0 W/m 25,7 km/h (4 Bft)
13.04.2013 02:54 9,1 C 7,9 C 87 % 1007,9 hPa 0,0 l/m 0 min 0 min 0,0 UV-I 0 W/m 23,2 km/h (4 Bft)
13.04.2013 02:56 9,1 C 7,9 C 87 % 1007,8 hPa 0,0 l/m 0 min 0 min 0,0 UV-I 0 W/m 12,9 km/h (3 Bft)
13.04.2013 02:58 9,1 C 7,9 C 87 % 1007,9 hPa 0,0 l/m 0 min 0 min 0,0 UV-I 0 W/m 15,4 km/h (3 Bft)
13.04.2013 03:00 9,1 C 7,9 C 88 % 1007,9 hPa 0,0 l/m 0 min 0 min 0,0 UV-I 0 W/m 15,4 km/h (3 Bft)
13.04.2013 03:02 9,1 C 7,9 C 88 % 1007,9 hPa 0,0 l/m 0 min 0 min 0,0 UV-I 0 W/m 15,4 km/h (3 Bft)
13.04.2013 03:06 9,0 C 7,9 C 88 % 1008,0 hPa 0,0 l/m 0 min 0 min 0,0 UV-I 0 W/m 18,0 km/h (3 Bft)
13.04.2013 03:08 9,0 C 7,9 C 88 % 1008,1 hPa 0,0 l/m 0 min 0 min 0,0 UV-I 0 W/m 10,3 km/h (2 Bft)
13.04.2013 03:10 9,0 C 7,3 C 88 % 1008,3 hPa 0,0 l/m 0 min 0 min 0,0 UV-I 0 W/m 15,4 km/h (3 Bft)
13.04.2013 03:12 8,9 C 7,3 C 88 % 1008,2 hPa 0,0 l/m 0 min 0 min 0,0 UV-I 0 W/m 10,3 km/h (2 Bft)
13.04.2013 03:14 8,9 C 7,3 C 88 % 1008,2 hPa 0,0 l/m 0 min 0 min 0,0 UV-I 0 W/m 18,0 km/h (3 Bft)
13.04.2013 03:16 8,9 C 7,3 C 88 % 1008,4 hPa 0,0 l/m 0 min 0 min 0,0 UV-I 0 W/m 18,0 km/h (3 Bft)
13.04.2013 03:18 8,9 C 7,3 C 88 % 1008,3 hPa 0,0 l/m 0 min 0 min 0,0 UV-I 0 W/m 12,9 km/h (3 Bft)
13.04.2013 03:20 8,8 C 7,3 C 89 % 1008,4 hPa 0,0 l/m 0 min 0 min 0,0 UV-I 0 W/m 10,3 km/h (2 Bft)
13.04.2013 03:22 8,8 C 7,3 C 89 % 1008,4 hPa 0,0 l/m 0 min 0 min 0,0 UV-I 0 W/m 10,3 km/h (2 Bft)
13.04.2013 03:24 8,8 C 7,3 C 89 % 1008,6 hPa 0,0 l/m 0 min 0 min 0,0 UV-I 0 W/m 10,3 km/h (2 Bft)
13.04.2013 03:26 8,8 C 7,3 C 89 % 1008,6 hPa 0,0 l/m 0 min 0 min 0,0 UV-I 0 W/m 15,4 km/h (3 Bft)
13.04.2013 03:28 8,8 C 7,3 C 89 % 1008,6 hPa 0,0 l/m 0 min 0 min 0,0 UV-I 0 W/m 15,4 km/h (3 Bft)
13.04.2013 03:30 8,8 C 7,3 C 89 % 1008,7 hPa 0,0 l/m 0 min 0 min 0,0 UV-I 0 W/m 10,3 km/h (2 Bft)
13.04.2013 03:32 8,8 C 7,3 C 93 % 1008,5 hPa 0,0 l/m 0 min 0 min 0,0 UV-I 0 W/m 10,3 km/h (2 Bft)
13.04.2013 03:34 8,7 C 7,3 C 89 % 1008,6 hPa 0,0 l/m 0 min 0 min 0,0 UV-I 0 W/m 12,9 km/h (3 Bft)
13.04.2013 03:36 8,7 C 7,3 C 90 % 1008,6 hPa 0,0 l/m 0 min 0 min 0,0 UV-I 0 W/m 15,4 km/h (3 Bft)
13.04.2013 03:38 8,7 C 7,3 C 90 % 1008,6 hPa 0,0 l/m 0 min 0 min 0,0 UV-I 0 W/m 10,3 km/h (2 Bft)
13.04.2013 03:40 8,7 C 7,3 C 90 % 1008,7 hPa 0,0 l/m 0 min 0 min 0,0 UV-I 0 W/m 10,3 km/h (2 Bft)
13.04.2013 03:42 8,7 C 7,3 C 90 % 1008,8 hPa 0,0 l/m 0 min 0 min 0,0 UV-I 0 W/m 15,4 km/h (3 Bft)
13.04.2013 03:44 8,7 C 7,3 C 90 % 1008,7 hPa 0,0 l/m 0 min 0 min 0,0 UV-I 0 W/m 15,4 km/h (3 Bft)
13.04.2013 03:46 8,7 C 7,3 C 90 % 1008,7 hPa 0,0 l/m 0 min 0 min 0,0 UV-I 0 W/m 18,0 km/h (3 Bft)
13.04.2013 03:48 8,7 C 7,3 C 90 % 1008,7 hPa 0,0 l/m 0 min 0 min 0,0 UV-I 0 W/m 15,4 km/h (3 Bft)
13.04.2013 03:50 8,7 C 7,3 C 90 % 1008,7 hPa 0,0 l/m 0 min 0 min 0,0 UV-I 0 W/m 15,4 km/h (3 Bft)
13.04.2013 03:52 8,7 C 7,3 C 90 % 1008,8 hPa 0,0 l/m 0 min 0 min 0,0 UV-I 0 W/m 5,1 km/h (1 Bft)
13.04.2013 03:54 8,7 C 7,3 C 90 % 1008,8 hPa 0,0 l/m 0 min 0 min 0,0 UV-I 0 W/m 15,4 km/h (3 Bft)
13.04.2013 03:56 8,7 C 7,3 C 90 % 1008,7 hPa 0,0 l/m 0 min 0 min 0,0 UV-I 0 W/m 10,3 km/h (2 Bft)
13.04.2013 03:58 8,7 C 7,3 C 90 % 1008,8 hPa 0,0 l/m 0 min 0 min 0,0 UV-I 0 W/m 20,6 km/h (4 Bft)
13.04.2013 04:00 8,7 C 7,3 C 91 % 1008,9 hPa 0,0 l/m 0 min 0 min 0,0 UV-I 0 W/m 10,3 km/h (2 Bft)
13.04.2013 04:02 8,7 C 7,3 C 91 % 1008,9 hPa 0,0 l/m 0 min 0 min 0,0 UV-I 0 W/m 2,6 km/h (1 Bft)
13.04.2013 04:07 8,7 C 7,3 C 91 % 1009,0 hPa 0,0 l/m 0 min 0 min 0,0 UV-I 0 W/m 15,4 km/h (3 Bft)
13.04.2013 04:08 8,7 C 7,3 C 91 % 1009,1 hPa 0,0 l/m 0 min 0 min 0,0 UV-I 0 W/m 10,3 km/h (2 Bft)
13.04.2013 04:10 8,7 C 7,3 C 91 % 1009,0 hPa 0,0 l/m 0 min 0 min 0,0 UV-I 0 W/m 10,3 km/h (2 Bft)
13.04.2013 04:12 8,7 C 7,3 C 91 % 1009,0 hPa 0,0 l/m 0 min 0 min 0,0 UV-I 0 W/m 12,9 km/h (3 Bft)
13.04.2013 04:14 8,7 C 7,3 C 91 % 1009,1 hPa 0,0 l/m 0 min 0 min 0,0 UV-I 0 W/m 7,7 km/h (2 Bft)
13.04.2013 04:16 8,7 C 7,3 C 91 % 1009,2 hPa 0,0 l/m 0 min 0 min 0,0 UV-I 0 W/m 18,0 km/h (3 Bft)
13.04.2013 04:18 8,7 C 7,3 C 91 % 1009,2 hPa 0,0 l/m 0 min 0 min 0,0 UV-I 0 W/m 12,9 km/h (3 Bft)
13.04.2013 04:20 8,7 C 7,3 C 91 % 1009,1 hPa 0,0 l/m 0 min 0 min 0,0 UV-I 0 W/m 10,3 km/h (2 Bft)
13.04.2013 04:22 8,8 C 7,3 C 91 % 1009,3 hPa 0,0 l/m 0 min 0 min 0,0 UV-I 0 W/m 12,9 km/h (3 Bft)
13.04.2013 04:24 8,8 C 7,9 C 91 % 1009,3 hPa 0,0 l/m 0 min 0 min 0,0 UV-I 0 W/m 10,3 km/h (2 Bft)
13.04.2013 04:26 8,8 C 7,9 C 91 % 1009,4 hPa 0,0 l/m 0 min 0 min 0,0 UV-I 0 W/m 12,9 km/h (3 Bft)
13.04.2013 04:28 8,8 C 7,9 C 91 % 1009,4 hPa 0,0 l/m 0 min 0 min 0,0 UV-I 0 W/m 15,4 km/h (3 Bft)
13.04.2013 04:30 8,8 C 7,9 C 91 % 1009,5 hPa 0,0 l/m 0 min 0 min 0,0 UV-I 0 W/m 5,1 km/h (1 Bft)
13.04.2013 04:32 8,8 C 7,9 C 91 % 1009,4 hPa 0,0 l/m 0 min 0 min 0,0 UV-I 0 W/m 7,7 km/h (2 Bft)
13.04.2013 04:34 8,8 C 7,9 C 91 % 1009,4 hPa 0,0 l/m 0 min 0 min 0,0 UV-I 0 W/m 10,3 km/h (2 Bft)
13.04.2013 04:36 8,8 C 7,9 C 91 % 1009,4 hPa 0,0 l/m 0 min 0 min 0,0 UV-I 0 W/m 7,7 km/h (2 Bft)
13.04.2013 04:38 8,8 C 7,9 C 91 % 1009,5 hPa 0,0 l/m 0 min 0 min 0,0 UV-I 0 W/m 5,1 km/h (1 Bft)
13.04.2013 04:40 8,8 C 7,9 C 91 % 1009,5 hPa 0,0 l/m 0 min 0 min 0,0 UV-I 0 W/m 10,3 km/h (2 Bft)
13.04.2013 04:42 8,8 C 7,9 C 91 % 1009,5 hPa 0,0 l/m 0 min 0 min 0,0 UV-I 0 W/m 10,3 km/h (2 Bft)
13.04.2013 04:44 8,8 C 7,9 C 91 % 1009,6 hPa 0,0 l/m 0 min 0 min 0,0 UV-I 0 W/m 7,7 km/h (2 Bft)
13.04.2013 04:46 8,8 C 7,9 C 91 % 1009,6 hPa 0,0 l/m 0 min 0 min 0,0 UV-I 0 W/m 7,7 km/h (2 Bft)
13.04.2013 04:48 8,8 C 7,9 C 91 % 1009,6 hPa 0,0 l/m 0 min 0 min 0,0 UV-I 0 W/m 10,3 km/h (2 Bft)
13.04.2013 04:50 8,8 C 7,9 C 91 % 1009,6 hPa 0,0 l/m 0 min 0 min 0,0 UV-I 0 W/m 7,7 km/h (2 Bft)
13.04.2013 04:52 8,8 C 7,9 C 90 % 1009,7 hPa 0,0 l/m 0 min 0 min 0,0 UV-I 0 W/m 10,3 km/h (2 Bft)
13.04.2013 04:54 8,8 C 7,9 C 90 % 1009,7 hPa 0,0 l/m 0 min 0 min 0,0 UV-I 0 W/m 10,3 km/h (2 Bft)
13.04.2013 04:56 8,8 C 7,9 C 90 % 1009,7 hPa 0,0 l/m 0 min 0 min 0,0 UV-I 0 W/m 12,9 km/h (3 Bft)
13.04.2013 04:58 8,9 C 7,9 C 90 % 1009,8 hPa 0,0 l/m 0 min 0 min 0,0 UV-I 0 W/m 12,9 km/h (3 Bft)
13.04.2013 05:00 8,9 C 7,9 C 90 % 1009,8 hPa 0,0 l/m 0 min 0 min 0,0 UV-I 0 W/m 7,7 km/h (2 Bft)
13.04.2013 05:02 8,9 C 7,9 C 90 % 1009,8 hPa 0,0 l/m 0 min 0 min 0,0 UV-I 0 W/m 15,4 km/h (3 Bft)
13.04.2013 05:04 8,9 C 7,9 C 90 % 1009,8 hPa 0,0 l/m 0 min 0 min 0,0 UV-I 0 W/m 7,7 km/h (2 Bft)
13.04.2013 05:06 8,9 C 7,9 C 90 % 1009,9 hPa 0,0 l/m 0 min 0 min 0,0 UV-I 0 W/m 20,6 km/h (4 Bft)
13.04.2013 05:08 8,9 C 7,9 C 90 % 1009,8 hPa 0,0 l/m 0 min 0 min 0,0 UV-I 0 W/m 10,3 km/h (2 Bft)
13.04.2013 05:10 8,9 C 7,9 C 90 % 1009,8 hPa 0,0 l/m 0 min 0 min 0,0 UV-I 0 W/m 7,7 km/h (2 Bft)
13.04.2013 05:12 8,9 C 7,9 C 90 % 1009,9 hPa 0,0 l/m 0 min 0 min 0,0 UV-I 0 W/m 15,4 km/h (3 Bft)
13.04.2013 05:14 8,9 C 7,9 C 90 % 1009,9 hPa 0,0 l/m 0 min 0 min 0,0 UV-I 0 W/m 7,7 km/h (2 Bft)
13.04.2013 05:16 8,9 C 7,9 C 90 % 1009,9 hPa 0,0 l/m 0 min 0 min 0,0 UV-I 0 W/m 10,3 km/h (2 Bft)
13.04.2013 05:18 8,9 C 7,9 C 90 % 1009,9 hPa 0,0 l/m 0 min 0 min 0,0 UV-I 0 W/m 15,4 km/h (3 Bft)
13.04.2013 05:20 8,9 C 7,9 C 90 % 1010,0 hPa 0,0 l/m 0 min 0 min 0,0 UV-I 0 W/m 5,1 km/h (1 Bft)
13.04.2013 05:22 8,9 C 7,9 C 90 % 1009,9 hPa 0,0 l/m 0 min 0 min 0,0 UV-I 0 W/m 10,3 km/h (2 Bft)
13.04.2013 05:24 8,9 C 7,9 C 90 % 1010,1 hPa 0,0 l/m 0 min 0 min 0,0 UV-I 0 W/m 7,7 km/h (2 Bft)
13.04.2013 05:26 8,9 C 7,9 C 90 % 1010,1 hPa 0,0 l/m 0 min 0 min 0,0 UV-I 0 W/m 12,9 km/h (3 Bft)
13.04.2013 05:28 8,9 C 7,9 C 90 % 1010,1 hPa 0,0 l/m 0 min 0 min 0,0 UV-I 0 W/m 0,0 km/h (0 Bft)
13.04.2013 05:30 8,9 C 7,9 C 90 % 1010,2 hPa 0,0 l/m 0 min 0 min 0,0 UV-I 0 W/m 10,3 km/h (2 Bft)
13.04.2013 05:32 8,9 C 7,9 C 90 % 1010,2 hPa 0,0 l/m 0 min 0 min 0,0 UV-I 0 W/m 10,3 km/h (2 Bft)
13.04.2013 05:34 8,9 C 7,9 C 90 % 1010,2 hPa 0,0 l/m 0 min 0 min 0,0 UV-I 0 W/m 5,1 km/h (1 Bft)
13.04.2013 05:36 8,9 C 7,9 C 90 % 1010,3 hPa 0,0 l/m 0 min 0 min 0,0 UV-I 0 W/m 12,9 km/h (3 Bft)
13.04.2013 05:38 8,9 C 7,9 C 90 % 1010,1 hPa 0,0 l/m 0 min 0 min 0,0 UV-I 0 W/m 12,9 km/h (3 Bft)
13.04.2013 05:40 8,9 C 7,9 C 90 % 1010,2 hPa 0,0 l/m 0 min 0 min 0,0 UV-I 0 W/m 12,9 km/h (3 Bft)
13.04.2013 05:42 8,9 C 7,9 C 90 % 1010,2 hPa 0,0 l/m 0 min 0 min 0,0 UV-I 0 W/m 15,4 km/h (3 Bft)
13.04.2013 05:44 9,0 C 7,9 C 90 % 1010,2 hPa 0,0 l/m 0 min 0 min 0,0 UV-I 0 W/m 10,3 km/h (2 Bft)
13.04.2013 05:46 9,0 C 7,9 C 90 % 1010,3 hPa 0,0 l/m 0 min 0 min 0,0 UV-I 0 W/m 10,3 km/h (2 Bft)
13.04.2013 05:48 9,0 C 7,9 C 90 % 1010,1 hPa 0,0 l/m 0 min 0 min 0,0 UV-I 0 W/m 10,3 km/h (2 Bft)
13.04.2013 05:50 9,0 C 7,9 C 90 % 1010,2 hPa 0,0 l/m 0 min 0 min 0,0 UV-I 0 W/m 15,4 km/h (3 Bft)
13.04.2013 05:52 9,0 C 7,9 C 90 % 1010,3 hPa 0,0 l/m 0 min 0 min 0,0 UV-I 0 W/m 12,9 km/h (3 Bft)
13.04.2013 05:54 9,0 C 7,9 C 90 % 1010,2 hPa 0,0 l/m 0 min 0 min 0,0 UV-I 0 W/m 12,9 km/h (3 Bft)
13.04.2013 05:56 9,0 C 7,9 C 90 % 1010,3 hPa 0,0 l/m 0 min 0 min 0,0 UV-I 0 W/m 7,7 km/h (2 Bft)
13.04.2013 05:58 9,0 C 7,9 C 90 % 1010,4 hPa 0,0 l/m 0 min 0 min 0,0 UV-I 0 W/m 10,3 km/h (2 Bft)
13.04.2013 06:00 9,0 C 7,9 C 90 % 1010,5 hPa 0,0 l/m 0 min 0 min 0,0 UV-I 0 W/m 10,3 km/h (2 Bft)
13.04.2013 06:02 9,0 C 7,9 C 90 % 1010,5 hPa 0,0 l/m 0 min 0 min 0,0 UV-I 0 W/m 10,3 km/h (2 Bft)
13.04.2013 06:06 9,0 C 7,9 C 89 % 1010,4 hPa 0,0 l/m 0 min 0 min 0,0 UV-I 0 W/m 12,9 km/h (3 Bft)
13.04.2013 06:08 9,0 C 7,9 C 89 % 1010,4 hPa 0,0 l/m 0 min 0 min 0,0 UV-I 0 W/m 18,0 km/h (3 Bft)
13.04.2013 06:10 9,0 C 7,9 C 89 % 1010,4 hPa 0,0 l/m 0 min 0 min 0,0 UV-I 0 W/m 12,9 km/h (3 Bft)
13.04.2013 06:12 9,0 C 7,9 C 89 % 1010,4 hPa 0,0 l/m 0 min 0 min 0,0 UV-I 0 W/m 5,1 km/h (1 Bft)
13.04.2013 06:14 9,0 C 7,9 C 89 % 1010,5 hPa 0,0 l/m 0 min 0 min 0,0 UV-I 0 W/m 10,3 km/h (2 Bft)
13.04.2013 06:16 9,0 C 7,9 C 89 % 1010,7 hPa 0,0 l/m 0 min 0 min 0,0 UV-I 0 W/m 7,7 km/h (2 Bft)
13.04.2013 06:18 9,0 C 7,9 C 89 % 1010,7 hPa 0,0 l/m 0 min 0 min 0,0 UV-I 0 W/m 5,1 km/h (1 Bft)
13.04.2013 06:20 9,0 C 7,9 C 89 % 1010,7 hPa 0,0 l/m 0 min 0 min 0,0 UV-I 0 W/m 12,9 km/h (3 Bft)
13.04.2013 06:22 9,0 C 7,9 C 89 % 1010,7 hPa 0,0 l/m 0 min 0 min 0,0 UV-I 0 W/m 2,6 km/h (1 Bft)
13.04.2013 06:24 9,0 C 7,9 C 90 % 1010,8 hPa 0,0 l/m 0 min 0 min 0,0 UV-I 0 W/m 10,3 km/h (2 Bft)
13.04.2013 06:26 9,0 C 7,9 C 90 % 1010,9 hPa 0,0 l/m 0 min 0 min 0,0 UV-I 0 W/m 10,3 km/h (2 Bft)
13.04.2013 06:28 9,0 C 7,9 C 90 % 1010,9 hPa 0,0 l/m 0 min 0 min 0,0 UV-I 0 W/m 10,3 km/h (2 Bft)
13.04.2013 06:30 8,9 C 7,9 C 90 % 1011,0 hPa 0,0 l/m 0 min 0 min 0,0 UV-I 0 W/m 10,3 km/h (2 Bft)
13.04.2013 06:32 8,9 C 7,9 C 90 % 1011,1 hPa 0,0 l/m 0 min 0 min 0,0 UV-I 0 W/m 10,3 km/h (2 Bft)
13.04.2013 06:34 8,9 C 7,9 C 90 % 1011,0 hPa 0,0 l/m 0 min 0 min 0,0 UV-I 0 W/m 15,4 km/h (3 Bft)
13.04.2013 06:36 8,9 C 7,9 C 90 % 1011,0 hPa 0,0 l/m 0 min 0 min 0,0 UV-I 0 W/m 20,6 km/h (4 Bft)
13.04.2013 06:38 8,9 C 7,9 C 90 % 1011,0 hPa 0,0 l/m 0 min 0 min 0,0 UV-I 0 W/m 10,3 km/h (2 Bft)
13.04.2013 06:40 8,9 C 7,9 C 90 % 1011,0 hPa 0,0 l/m 0 min 0 min 0,0 UV-I 0 W/m 18,0 km/h (3 Bft)
13.04.2013 06:42 8,9 C 7,9 C 90 % 1010,9 hPa 0,0 l/m 0 min 0 min 0,0 UV-I 0 W/m 15,4 km/h (3 Bft)
13.04.2013 06:44 8,9 C 7,9 C 90 % 1011,0 hPa 0,0 l/m 0 min 0 min 0,0 UV-I 0 W/m 15,4 km/h (3 Bft)
13.04.2013 06:46 8,9 C 7,9 C 90 % 1011,0 hPa 0,0 l/m 0 min 0 min 0,0 UV-I 0 W/m 5,1 km/h (1 Bft)
13.04.2013 06:48 8,9 C 7,9 C 90 % 1011,1 hPa 0,0 l/m 0 min 0 min 0,0 UV-I 0 W/m 7,7 km/h (2 Bft)
13.04.2013 06:50 8,9 C 7,9 C 90 % 1011,2 hPa 0,0 l/m 0 min 0 min 0,0 UV-I 0 W/m 10,3 km/h (2 Bft)
13.04.2013 06:52 8,9 C 7,9 C 90 % 1011,2 hPa 0,0 l/m 0 min 0 min 0,0 UV-I 0 W/m 2,6 km/h (1 Bft)
13.04.2013 06:54 8,9 C 7,9 C 91 % 1011,1 hPa 0,0 l/m 0 min 0 min 0,0 UV-I 0 W/m 12,9 km/h (3 Bft)
13.04.2013 06:56 8,9 C 7,9 C 91 % 1011,2 hPa 0,0 l/m 0 min 0 min 0,0 UV-I 0 W/m 7,7 km/h (2 Bft)
13.04.2013 06:58 8,8 C 7,9 C 91 % 1011,3 hPa 0,0 l/m 0 min 0 min 0,0 UV-I 0 W/m 12,9 km/h (3 Bft)
13.04.2013 07:00 8,8 C 7,9 C 91 % 1011,3 hPa 0,0 l/m 0 min 0 min 0,0 UV-I 0 W/m 12,9 km/h (3 Bft)
13.04.2013 07:02 8,8 C 7,9 C 91 % 1011,3 hPa 0,0 l/m 0 min 0 min 0,0 UV-I 0 W/m 15,4 km/h (3 Bft)
13.04.2013 07:04 8,8 C 7,9 C 91 % 1011,4 hPa 0,0 l/m 0 min 0 min 0,0 UV-I 0 W/m 7,7 km/h (2 Bft)
13.04.2013 07:06 8,8 C 7,9 C 91 % 1011,5 hPa 0,0 l/m 0 min 0 min 0,0 UV-I 0 W/m 12,9 km/h (3 Bft)
13.04.2013 07:08 8,8 C 7,9 C 91 % 1011,5 hPa 0,0 l/m 0 min 0 min 0,0 UV-I 0 W/m 15,4 km/h (3 Bft)
13.04.2013 07:10 8,8 C 7,9 C 91 % 1011,5 hPa 0,0 l/m 0 min 0 min 0,0 UV-I 0 W/m 7,7 km/h (2 Bft)
13.04.2013 07:12 8,8 C 7,9 C 91 % 1011,6 hPa 0,0 l/m 0 min 0 min 0,0 UV-I 0 W/m 12,9 km/h (3 Bft)
13.04.2013 07:14 8,8 C 7,9 C 91 % 1011,6 hPa 0,0 l/m 0 min 0 min 0,0 UV-I 5 W/m 5,1 km/h (1 Bft)
13.04.2013 07:16 8,8 C 7,9 C 91 % 1011,6 hPa 0,0 l/m 0 min 0 min 0,0 UV-I 5 W/m 18,0 km/h (3 Bft)
13.04.2013 07:18 8,8 C 7,9 C 91 % 1011,6 hPa 0,0 l/m 0 min 0 min 0,0 UV-I 5 W/m 18,0 km/h (3 Bft)
13.04.2013 07:20 8,8 C 7,9 C 91 % 1011,7 hPa 0,0 l/m 0 min 0 min 0,0 UV-I 5 W/m 15,4 km/h (3 Bft)
13.04.2013 07:22 8,8 C 7,9 C 91 % 1011,7 hPa 0,0 l/m 0 min 0 min 0,0 UV-I 5 W/m 10,3 km/h (2 Bft)
13.04.2013 07:24 8,8 C 7,9 C 90 % 1011,8 hPa 0,0 l/m 0 min 0 min 0,0 UV-I 5 W/m 20,6 km/h (4 Bft)
13.04.2013 07:26 8,7 C 7,9 C 90 % 1011,8 hPa 0,0 l/m 0 min 0 min 0,0 UV-I 5 W/m 12,9 km/h (3 Bft)
13.04.2013 07:28 8,7 C 7,9 C 90 % 1011,9 hPa 0,0 l/m 0 min 0 min 0,0 UV-I 5 W/m 12,9 km/h (3 Bft)
13.04.2013 07:30 8,8 C 7,9 C 90 % 1011,9 hPa 0,0 l/m 0 min 0 min 0,0 UV-I 5 W/m 10,3 km/h (2 Bft)
13.04.2013 07:32 8,8 C 7,9 C 90 % 1012,0 hPa 0,0 l/m 0 min 0 min 0,0 UV-I 7 W/m 15,4 km/h (3 Bft)
13.04.2013 07:34 8,8 C 7,9 C 90 % 1012,0 hPa 0,0 l/m 0 min 0 min 0,0 UV-I 7 W/m 10,3 km/h (2 Bft)
13.04.2013 07:36 8,8 C 7,9 C 90 % 1012,1 hPa 0,0 l/m 0 min 0 min 0,0 UV-I 9 W/m 18,0 km/h (3 Bft)
13.04.2013 07:38 8,8 C 7,9 C 90 % 1012,1 hPa 0,0 l/m 0 min 0 min 0,0 UV-I 9 W/m 20,6 km/h (4 Bft)
13.04.2013 07:40 8,8 C 7,9 C 89 % 1012,1 hPa 0,0 l/m 0 min 0 min 0,0 UV-I 11 W/m 12,9 km/h (3 Bft)
13.04.2013 07:42 8,8 C 7,9 C 90 % 1012,1 hPa 0,0 l/m 0 min 0 min 0,0 UV-I 11 W/m 12,9 km/h (3 Bft)
13.04.2013 07:44 8,8 C 7,9 C 89 % 1012,1 hPa 0,0 l/m 0 min 0 min 0,0 UV-I 11 W/m 15,4 km/h (3 Bft)
13.04.2013 07:46 8,8 C 7,9 C 89 % 1012,2 hPa 0,0 l/m 0 min 0 min 0,0 UV-I 9 W/m 18,0 km/h (3 Bft)
13.04.2013 07:48 8,8 C 7,9 C 89 % 1012,3 hPa 0,0 l/m 0 min 0 min 0,0 UV-I 7 W/m 15,4 km/h (3 Bft)
13.04.2013 07:50 8,8 C 7,9 C 89 % 1012,4 hPa 0,0 l/m 0 min 0 min 0,0 UV-I 7 W/m 15,4 km/h (3 Bft)
13.04.2013 07:52 8,8 C 7,9 C 89 % 1012,4 hPa 0,0 l/m 0 min 0 min 0,0 UV-I 7 W/m 18,0 km/h (3 Bft)
13.04.2013 07:54 8,8 C 7,9 C 89 % 1012,4 hPa 0,0 l/m 0 min 0 min 0,0 UV-I 9 W/m 10,3 km/h (2 Bft)
13.04.2013 07:56 8,8 C 7,9 C 89 % 1012,5 hPa 0,0 l/m 0 min 0 min 0,0 UV-I 11 W/m 12,9 km/h (3 Bft)
13.04.2013 07:58 8,8 C 7,9 C 89 % 1012,5 hPa 0,0 l/m 0 min 0 min 0,0 UV-I 11 W/m 20,6 km/h (4 Bft)
13.04.2013 08:00 8,8 C 7,9 C 89 % 1012,5 hPa 0,0 l/m 0 min 0 min 0,0 UV-I 11 W/m 12,9 km/h (3 Bft)
13.04.2013 08:02 8,8 C 7,9 C 89 % 1012,5 hPa 0,0 l/m 0 min 0 min 0,0 UV-I 14 W/m 7,7 km/h (2 Bft)
13.04.2013 08:04 8,8 C 7,9 C 89 % 1012,5 hPa 0,0 l/m 0 min 0 min 0,0 UV-I 18 W/m 7,7 km/h (2 Bft)
13.04.2013 08:06 8,7 C 7,9 C 89 % 1012,6 hPa 0,0 l/m 0 min 0 min 0,0 UV-I 19 W/m 30,9 km/h (5 Bft)
13.04.2013 08:08 8,7 C 7,9 C 89 % 1012,6 hPa 0,0 l/m 0 min 0 min 0,0 UV-I 21 W/m 18,0 km/h (3 Bft)
13.04.2013 08:10 8,7 C 7,9 C 89 % 1012,6 hPa 0,0 l/m 0 min 0 min 0,0 UV-I 28 W/m 25,7 km/h (4 Bft)
13.04.2013 08:12 8,7 C 7,9 C 88 % 1012,7 hPa 0,0 l/m 0 min 0 min 0,0 UV-I 30 W/m 20,6 km/h (4 Bft)
13.04.2013 08:14 8,7 C 7,9 C 88 % 1012,7 hPa 0,0 l/m 0 min 0 min 0,0 UV-I 40 W/m 18,0 km/h (3 Bft)
13.04.2013 08:16 8,7 C 7,9 C 88 % 1012,8 hPa 0,0 l/m 0 min 0 min 0,0 UV-I 40 W/m 15,4 km/h (3 Bft)
13.04.2013 08:18 8,7 C 7,9 C 88 % 1012,8 hPa 0,0 l/m 0 min 0 min 0,0 UV-I 39 W/m 23,2 km/h (4 Bft)
13.04.2013 08:20 8,8 C 7,9 C 88 % 1012,9 hPa 0,0 l/m 0 min 0 min 0,0 UV-I 40 W/m 15,4 km/h (3 Bft)
13.04.2013 08:22 8,8 C 7,9 C 88 % 1013,0 hPa 0,0 l/m 0 min 0 min 0,0 UV-I 37 W/m 20,6 km/h (4 Bft)
13.04.2013 08:24 8,8 C 7,9 C 88 % 1013,0 hPa 0,0 l/m 0 min 0 min 0,0 UV-I 32 W/m 20,6 km/h (4 Bft)
13.04.2013 08:26 8,8 C 7,9 C 88 % 1013,0 hPa 0,0 l/m 0 min 0 min 0,0 UV-I 46 W/m 7,7 km/h (2 Bft)
13.04.2013 08:28 8,8 C 7,9 C 88 % 1013,1 hPa 0,0 l/m 0 min 0 min 0,0 UV-I 54 W/m 15,4 km/h (3 Bft)
13.04.2013 08:30 8,7 C 7,9 C 88 % 1013,0 hPa 0,0 l/m 0 min 0 min 0,0 UV-I 53 W/m 25,7 km/h (4 Bft)
13.04.2013 08:32 8,7 C 7,9 C 88 % 1013,1 hPa 0,0 l/m 0 min 0 min 0,0 UV-I 69 W/m 20,6 km/h (4 Bft)
13.04.2013 08:34 8,8 C 7,9 C 88 % 1013,3 hPa 0,0 l/m 0 min 0 min 0,0 UV-I 67 W/m 20,6 km/h (4 Bft)
13.04.2013 08:36 8,8 C 7,9 C 88 % 1013,2 hPa 0,0 l/m 0 min 0 min 0,0 UV-I 72 W/m 18,0 km/h (3 Bft)
13.04.2013 08:38 8,8 C 7,9 C 88 % 1013,5 hPa 0,0 l/m 0 min 0 min 0,0 UV-I 93 W/m 18,0 km/h (3 Bft)
13.04.2013 08:40 8,8 C 8,4 C 88 % 1013,5 hPa 0,0 l/m 0 min 0 min 0,0 UV-I 91 W/m 28,3 km/h (4 Bft)
13.04.2013 08:42 8,8 C 8,4 C 88 % 1013,5 hPa 0,0 l/m 0 min 0 min 0,0 UV-I 95 W/m 20,6 km/h (4 Bft)
13.04.2013 08:44 8,8 C 8,4 C 88 % 1013,5 hPa 0,0 l/m 0 min 0 min 0,0 UV-I 102 W/m 12,9 km/h (3 Bft)
13.04.2013 08:46 8,8 C 8,4 C 88 % 1013,5 hPa 0,0 l/m 0 min 0 min 0,0 UV-I 114 W/m 12,9 km/h (3 Bft)
13.04.2013 08:48 8,8 C 8,4 C 88 % 1013,6 hPa 0,0 l/m 0 min 0 min 0,0 UV-I 120 W/m 20,6 km/h (4 Bft)
13.04.2013 08:50 8,9 C 8,4 C 88 % 1013,6 hPa 0,0 l/m 0 min 0 min 0,0 UV-I 134 W/m 15,4 km/h (3 Bft)
13.04.2013 08:52 8,9 C 8,4 C 88 % 1013,6 hPa 0,0 l/m 0 min 0 min 0,0 UV-I 113 W/m 15,4 km/h (3 Bft)
13.04.2013 08:54 9,0 C 8,4 C 87 % 1013,7 hPa 0,0 l/m 0 min 0 min 0,0 UV-I 125 W/m 28,3 km/h (4 Bft)
13.04.2013 08:56 9,0 C 8,4 C 87 % 1013,8 hPa 0,0 l/m 0 min 0 min 0,0 UV-I 114 W/m 20,6 km/h (4 Bft)
13.04.2013 08:58 9,0 C 8,4 C 87 % 1013,7 hPa 0,0 l/m 0 min 0 min 0,0 UV-I 98 W/m 15,4 km/h (3 Bft)
13.04.2013 09:00 9,1 C 8,4 C 87 % 1013,8 hPa 0,0 l/m 0 min 0 min 0,0 UV-I 109 W/m 23,2 km/h (4 Bft)
13.04.2013 09:02 9,1 C 8,4 C 87 % 1013,9 hPa 0,0 l/m 0 min 0 min 0,0 UV-I 100 W/m 18,0 km/h (3 Bft)
13.04.2013 09:06 9,1 C 8,4 C 87 % 1014,0 hPa 0,0 l/m 0 min 0 min 0,0 UV-I 127 W/m 15,4 km/h (3 Bft)
13.04.2013 09:08 9,1 C 8,4 C 87 % 1014,0 hPa 0,0 l/m 0 min 0 min 0,0 UV-I 144 W/m 12,9 km/h (3 Bft)
13.04.2013 09:10 9,1 C 9,0 C 87 % 1014,1 hPa 0,0 l/m 0 min 0 min 0,0 UV-I 121 W/m 10,3 km/h (2 Bft)
13.04.2013 09:12 9,1 C 9,0 C 87 % 1014,2 hPa 0,0 l/m 0 min 0 min 0,0 UV-I 130 W/m 28,3 km/h (4 Bft)
13.04.2013 09:14 9,1 C 9,0 C 87 % 1014,3 hPa 0,0 l/m 0 min 0 min 0,0 UV-I 109 W/m 18,0 km/h (3 Bft)
13.04.2013 09:16 9,1 C 9,0 C 86 % 1014,2 hPa 0,0 l/m 0 min 0 min 0,0 UV-I 90 W/m 20,6 km/h (4 Bft)
13.04.2013 09:18 9,2 C 8,4 C 86 % 1014,3 hPa 0,0 l/m 0 min 0 min 0,0 UV-I 84 W/m 25,7 km/h (4 Bft)
13.04.2013 09:20 9,1 C 8,4 C 86 % 1014,2 hPa 0,0 l/m 0 min 0 min 0,0 UV-I 88 W/m 12,9 km/h (3 Bft)
13.04.2013 09:22 9,2 C 8,4 C 86 % 1014,3 hPa 0,0 l/m 0 min 0 min 0,0 UV-I 72 W/m 10,3 km/h (2 Bft)
13.04.2013 09:24 9,1 C 8,4 C 86 % 1014,3 hPa 0,0 l/m 0 min 0 min 0,0 UV-I 104 W/m 12,9 km/h (3 Bft)
13.04.2013 09:26 9,1 C 8,4 C 86 % 1014,5 hPa 0,0 l/m 0 min 0 min 0,0 UV-I 121 W/m 25,7 km/h (4 Bft)
13.04.2013 09:28 9,1 C 8,4 C 86 % 1014,4 hPa 0,0 l/m 0 min 0 min 0,0 UV-I 111 W/m 18,0 km/h (3 Bft)
13.04.2013 09:30 9,1 C 8,4 C 86 % 1014,4 hPa 0,0 l/m 0 min 0 min 0,0 UV-I 134 W/m 10,3 km/h (2 Bft)
13.04.2013 09:32 9,1 C 9,0 C 87 % 1014,5 hPa 0,0 l/m 0 min 0 min 0,0 UV-I 139 W/m 12,9 km/h (3 Bft)
13.04.2013 09:34 9,1 C 9,0 C 86 % 1014,5 hPa 0,0 l/m 0 min 0 min 0,0 UV-I 121 W/m 15,4 km/h (3 Bft)
13.04.2013 09:36 9,2 C 8,4 C 86 % 1014,6 hPa 0,0 l/m 0 min 0 min 0,0 UV-I 97 W/m 18,0 km/h (3 Bft)
13.04.2013 09:38 9,1 C 8,4 C 86 % 1014,7 hPa 0,0 l/m 0 min 0 min 0,0 UV-I 127 W/m 20,6 km/h (4 Bft)
13.04.2013 09:40 9,1 C 8,4 C 86 % 1014,6 hPa 0,0 l/m 0 min 0 min 0,0 UV-I 118 W/m 10,3 km/h (2 Bft)
13.04.2013 09:42 9,1 C 9,0 C 86 % 1014,7 hPa 0,0 l/m 0 min 0 min 0,0 UV-I 139 W/m 12,9 km/h (3 Bft)
13.04.2013 09:44 9,1 C 9,0 C 87 % 1014,8 hPa 0,0 l/m 0 min 0 min 0,0 UV-I 128 W/m 15,4 km/h (3 Bft)
13.04.2013 09:46 9,1 C 9,0 C 86 % 1014,8 hPa 0,0 l/m 0 min 0 min 0,0 UV-I 144 W/m 30,9 km/h (5 Bft)
13.04.2013 09:48 9,1 C 9,0 C 86 % 1014,8 hPa 0,0 l/m 0 min 0 min 0,0 UV-I 190 W/m 25,7 km/h (4 Bft)
13.04.2013 09:50 9,2 C 9,0 C 86 % 1014,7 hPa 0,0 l/m 0 min 0 min 0,0 UV-I 197 W/m 12,9 km/h (3 Bft)
13.04.2013 09:52 9,2 C 9,6 C 87 % 1014,8 hPa 0,0 l/m 0 min 0 min 0,0 UV-I 195 W/m 10,3 km/h (2 Bft)
13.04.2013 09:54 9,2 C 9,6 C 87 % 1014,7 hPa 0,0 l/m 0 min 0 min 0,0 UV-I 188 W/m 20,6 km/h (4 Bft)
13.04.2013 09:56 9,3 C 9,6 C 86 % 1014,8 hPa 0,0 l/m 0 min 0 min 0,0 UV-I 195 W/m 18,0 km/h (3 Bft)
13.04.2013 09:58 9,3 C 9,6 C 86 % 1014,9 hPa 0,0 l/m 0 min 0 min 0,0 UV-I 199 W/m 18,0 km/h (3 Bft)
13.04.2013 10:00 9,3 C 9,6 C 86 % 1014,8 hPa 0,0 l/m 0 min 0 min 0,0 UV-I 218 W/m 20,6 km/h (4 Bft)
13.04.2013 10:02 9,4 C 10,1 C 86 % 1014,9 hPa 0,0 l/m 0 min 0 min 0,0 UV-I 221 W/m 23,2 km/h (4 Bft)
13.04.2013 10:04 9,6 C 10,1 C 86 % 1014,9 hPa 0,0 l/m 0 min 0 min 0,0 UV-I 211 W/m 12,9 km/h (3 Bft)
13.04.2013 10:06 9,6 C 10,1 C 86 % 1015,0 hPa 0,0 l/m 0 min 0 min 0,0 UV-I 211 W/m 15,4 km/h (3 Bft)
13.04.2013 10:08 9,6 C 10,1 C 86 % 1015,0 hPa 0,0 l/m 0 min 0 min 0,0 UV-I 225 W/m 12,9 km/h (3 Bft)
13.04.2013 10:10 9,7 C 10,1 C 86 % 1015,1 hPa 0,0 l/m 0 min 0 min 0,0 UV-I 243 W/m 20,6 km/h (4 Bft)
13.04.2013 10:12 9,7 C 10,1 C 85 % 1015,1 hPa 0,0 l/m 0 min 0 min 0,0 UV-I 229 W/m 15,4 km/h (3 Bft)
13.04.2013 10:14 9,8 C 10,7 C 85 % 1015,1 hPa 0,0 l/m 0 min 0 min 0,0 UV-I 260 W/m 7,7 km/h (2 Bft)
13.04.2013 10:16 9,8 C 10,7 C 85 % 1015,1 hPa 0,0 l/m 0 min 0 min 0,0 UV-I 276 W/m 10,3 km/h (2 Bft)
13.04.2013 10:18 9,9 C 10,7 C 85 % 1015,2 hPa 0,0 l/m 0 min 0 min 0,0 UV-I 281 W/m 18,0 km/h (3 Bft)
13.04.2013 10:20 9,9 C 10,7 C 85 % 1015,2 hPa 0,0 l/m 0 min 0 min 0,0 UV-I 218 W/m 12,9 km/h (3 Bft)
13.04.2013 10:22 9,9 C 10,7 C 84 % 1015,2 hPa 0,0 l/m 0 min 0 min 0,0 UV-I 223 W/m 15,4 km/h (3 Bft)
13.04.2013 10:24 10,0 C 10,7 C 84 % 1015,3 hPa 0,0 l/m 0 min 0 min 0,0 UV-I 214 W/m 15,4 km/h (3 Bft)
13.04.2013 10:26 10,1 C 10,1 C 84 % 1015,3 hPa 0,0 l/m 0 min 0 min 0,0 UV-I 229 W/m 18,0 km/h (3 Bft)
13.04.2013 10:28 10,1 C 10,1 C 84 % 1015,4 hPa 0,0 l/m 0 min 0 min 0,0 UV-I 223 W/m 20,6 km/h (4 Bft)
13.04.2013 10:30 10,1 C 10,1 C 83 % 1015,3 hPa 0,0 l/m 0 min 0 min 0,0 UV-I 237 W/m 20,6 km/h (4 Bft)
13.04.2013 10:32 10,1 C 10,7 C 84 % 1015,4 hPa 0,0 l/m 0 min 0 min 0,0 UV-I 288 W/m 15,4 km/h (3 Bft)
13.04.2013 10:34 10,1 C 10,7 C 84 % 1015,4 hPa 0,0 l/m 0 min 0 min 0,0 UV-I 234 W/m 18,0 km/h (3 Bft)
13.04.2013 10:36 10,2 C 10,7 C 84 % 1015,5 hPa 0,0 l/m 0 min 0 min 0,0 UV-I 234 W/m 15,4 km/h (3 Bft)
13.04.2013 10:38 10,2 C 10,7 C 84 % 1015,5 hPa 0,0 l/m 0 min 0 min 0,0 UV-I 237 W/m 7,7 km/h (2 Bft)
13.04.2013 10:40 10,2 C 10,7 C 84 % 1015,5 hPa 0,0 l/m 0 min 0 min 0,0 UV-I 239 W/m 10,3 km/h (2 Bft)
13.04.2013 10:42 10,3 C 10,7 C 83 % 1015,6 hPa 0,0 l/m 0 min 0 min 0,0 UV-I 239 W/m 18,0 km/h (3 Bft)
13.04.2013 10:44 10,3 C 11,2 C 83 % 1015,6 hPa 0,0 l/m 0 min 0 min 0,0 UV-I 246 W/m 15,4 km/h (3 Bft)
13.04.2013 10:46 10,4 C 10,7 C 83 % 1015,7 hPa 0,0 l/m 0 min 0 min 0,0 UV-I 243 W/m 12,9 km/h (3 Bft)
13.04.2013 10:48 10,4 C 10,7 C 82 % 1015,6 hPa 0,0 l/m 0 min 0 min 0,0 UV-I 213 W/m 15,4 km/h (3 Bft)
13.04.2013 10:50 10,4 C 10,7 C 82 % 1015,7 hPa 0,0 l/m 0 min 0 min 0,0 UV-I 204 W/m 10,3 km/h (2 Bft)
13.04.2013 10:52 10,4 C 10,7 C 82 % 1015,7 hPa 0,0 l/m 0 min 0 min 0,0 UV-I 209 W/m 12,9 km/h (3 Bft)
13.04.2013 10:54 10,4 C 10,7 C 82 % 1015,7 hPa 0,0 l/m 0 min 0 min 0,0 UV-I 211 W/m 10,3 km/h (2 Bft)
13.04.2013 10:56 10,5 C 10,7 C 82 % 1015,6 hPa 0,0 l/m 0 min 0 min 0,0 UV-I 209 W/m 18,0 km/h (3 Bft)
13.04.2013 10:58 10,5 C 10,7 C 82 % 1015,7 hPa 0,0 l/m 0 min 0 min 0,0 UV-I 199 W/m 15,4 km/h (3 Bft)
13.04.2013 11:00 10,5 C 10,7 C 82 % 1015,8 hPa 0,0 l/m 0 min 0 min 0,0 UV-I 192 W/m 7,7 km/h (2 Bft)
13.04.2013 11:02 10,5 C 10,7 C 82 % 1015,8 hPa 0,0 l/m 0 min 0 min 0,0 UV-I 188 W/m 18,0 km/h (3 Bft)
13.04.2013 11:04 10,4 C 10,7 C 81 % 1015,8 hPa 0,0 l/m 0 min 0 min 0,0 UV-I 185 W/m 15,4 km/h (3 Bft)
13.04.2013 11:06 10,4 C 10,1 C 81 % 1015,9 hPa 0,0 l/m 0 min 0 min 0,0 UV-I 188 W/m 28,3 km/h (4 Bft)
13.04.2013 11:08 10,4 C 10,1 C 81 % 1015,9 hPa 0,0 l/m 0 min 0 min 0,0 UV-I 195 W/m 7,7 km/h (2 Bft)
13.04.2013 11:10 10,4 C 10,7 C 81 % 1015,9 hPa 0,0 l/m 0 min 0 min 0,0 UV-I 216 W/m 15,4 km/h (3 Bft)
13.04.2013 11:12 10,4 C 10,7 C 81 % 1016,0 hPa 0,0 l/m 0 min 0 min 0,0 UV-I 227 W/m 18,0 km/h (3 Bft)
13.04.2013 11:14 10,4 C 10,7 C 82 % 1016,0 hPa 0,0 l/m 0 min 0 min 0,0 UV-I 227 W/m 10,3 km/h (2 Bft)
13.04.2013 11:16 10,4 C 10,7 C 82 % 1016,2 hPa 0,0 l/m 0 min 0 min 0,0 UV-I 227 W/m 15,4 km/h (3 Bft)
13.04.2013 11:18 10,5 C 10,7 C 81 % 1016,1 hPa 0,0 l/m 0 min 0 min 0,0 UV-I 227 W/m 10,3 km/h (2 Bft)
13.04.2013 11:20 10,5 C 10,7 C 82 % 1016,2 hPa 0,0 l/m 0 min 0 min 0,0 UV-I 227 W/m 15,4 km/h (3 Bft)
13.04.2013 11:22 10,5 C 10,7 C 81 % 1016,2 hPa 0,0 l/m 0 min 0 min 0,0 UV-I 220 W/m 15,4 km/h (3 Bft)
13.04.2013 11:24 10,5 C 10,7 C 81 % 1016,2 hPa 0,0 l/m 0 min 0 min 0,0 UV-I 218 W/m 15,4 km/h (3 Bft)
13.04.2013 11:26 10,5 C 10,7 C 81 % 1016,2 hPa 0,0 l/m 0 min 0 min 0,0 UV-I 213 W/m 20,6 km/h (4 Bft)
13.04.2013 11:28 10,6 C 10,7 C 81 % 1016,3 hPa 0,0 l/m 0 min 0 min 0,0 UV-I 218 W/m 15,4 km/h (3 Bft)
13.04.2013 11:30 10,6 C 10,7 C 81 % 1016,2 hPa 0,0 l/m 0 min 0 min 0,0 UV-I 230 W/m 10,3 km/h (2 Bft)
13.04.2013 11:32 10,6 C 10,7 C 81 % 1016,3 hPa 0,0 l/m 0 min 0 min 0,0 UV-I 243 W/m 12,9 km/h (3 Bft)
13.04.2013 11:34 10,6 C 11,2 C 81 % 1016,3 hPa 0,0 l/m 0 min 0 min 0,6 UV-I 271 W/m 15,4 km/h (3 Bft)
13.04.2013 11:36 10,7 C 11,2 C 81 % 1016,5 hPa 0,0 l/m 0 min 0 min 0,7 UV-I 285 W/m 18,0 km/h (3 Bft)
13.04.2013 11:38 10,7 C 11,8 C 82 % 1016,5 hPa 0,0 l/m 0 min 0 min 0,7 UV-I 281 W/m 10,3 km/h (2 Bft)
13.04.2013 11:40 10,8 C 11,8 C 82 % 1016,7 hPa 0,0 l/m 0 min 0 min 0,6 UV-I 269 W/m 20,6 km/h (4 Bft)
13.04.2013 11:42 10,8 C 11,2 C 80 % 1016,5 hPa 0,0 l/m 0 min 0 min 0,7 UV-I 297 W/m 20,6 km/h (4 Bft)
13.04.2013 11:44 10,8 C 11,8 C 80 % 1016,6 hPa 0,0 l/m 0 min 0 min 0,9 UV-I 367 W/m 15,4 km/h (3 Bft)
13.04.2013 11:46 10,9 C 11,8 C 80 % 1016,5 hPa 0,0 l/m 0 min 0 min 0,9 UV-I 323 W/m 12,9 km/h (3 Bft)
13.04.2013 11:48 11,0 C 12,3 C 80 % 1016,6 hPa 0,0 l/m 2 min 0 min 1,1 UV-I 373 W/m 12,9 km/h (3 Bft)
13.04.2013 11:50 11,1 C 12,3 C 80 % 1016,7 hPa 0,0 l/m 2 min 0 min 1,1 UV-I 473 W/m 15,4 km/h (3 Bft)
13.04.2013 11:52 11,2 C 12,3 C 80 % 1016,7 hPa 0,0 l/m 2 min 0 min 1,5 UV-I 392 W/m 12,9 km/h (3 Bft)
13.04.2013 11:54 11,3 C 13,4 C 81 % 1016,6 hPa 0,0 l/m 2 min 0 min 1,5 UV-I 541 W/m 10,3 km/h (2 Bft)
13.04.2013 11:56 11,5 C 12,9 C 80 % 1016,8 hPa 0,0 l/m 2 min 0 min 0,7 UV-I 418 W/m 18,0 km/h (3 Bft)
13.04.2013 11:58 11,6 C 12,3 C 80 % 1016,9 hPa 0,0 l/m 0 min 0 min 1,2 UV-I 269 W/m 12,9 km/h (3 Bft)
13.04.2013 12:00 11,6 C 12,3 C 79 % 1016,7 hPa 0,0 l/m 0 min 0 min 1,0 UV-I 258 W/m 15,4 km/h (3 Bft)
13.04.2013 12:02 11,7 C 12,9 C 80 % 1016,7 hPa 0,0 l/m 2 min 0 min 1,6 UV-I 438 W/m 15,4 km/h (3 Bft)
13.04.2013 12:06 11,9 C 13,4 C 78 % 1016,8 hPa 0,0 l/m 2 min 0 min 1,6 UV-I 439 W/m 15,4 km/h (3 Bft)
13.04.2013 12:08 11,9 C 14,0 C 78 % 1017,0 hPa 0,0 l/m 2 min 0 min 1,6 UV-I 390 W/m 15,4 km/h (3 Bft)
13.04.2013 12:10 12,1 C 14,0 C 78 % 1016,9 hPa 0,0 l/m 0 min 0 min 1,3 UV-I 369 W/m 10,3 km/h (2 Bft)
13.04.2013 12:12 12,2 C 13,4 C 77 % 1016,9 hPa 0,0 l/m 0 min 0 min 1,1 UV-I 285 W/m 15,4 km/h (3 Bft)
13.04.2013 12:14 12,3 C 13,4 C 77 % 1016,9 hPa 0,0 l/m 0 min 0 min 1,4 UV-I 323 W/m 15,4 km/h (3 Bft)
13.04.2013 12:16 12,3 C 13,4 C 76 % 1017,0 hPa 0,0 l/m 0 min 0 min 1,1 UV-I 294 W/m 20,6 km/h (4 Bft)
13.04.2013 12:18 12,4 C 13,4 C 75 % 1017,0 hPa 0,0 l/m 0 min 0 min 0,9 UV-I 234 W/m 12,9 km/h (3 Bft)
13.04.2013 12:20 12,4 C 12,9 C 75 % 1017,1 hPa 0,0 l/m 0 min 0 min 1,3 UV-I 371 W/m 18,0 km/h (3 Bft)
13.04.2013 12:22 12,4 C 13,4 C 74 % 1017,1 hPa 0,0 l/m 0 min 0 min 1,5 UV-I 364 W/m 23,2 km/h (4 Bft)
13.04.2013 12:24 12,4 C 13,4 C 72 % 1017,1 hPa 0,0 l/m 0 min 0 min 2,5 UV-I 374 W/m 25,7 km/h (4 Bft)
13.04.2013 12:26 12,4 C 13,4 C 73 % 1017,1 hPa 0,0 l/m 0 min 0 min 1,1 UV-I 288 W/m 18,0 km/h (3 Bft)
13.04.2013 12:28 12,5 C 13,4 C 73 % 1017,0 hPa 0,0 l/m 0 min 0 min 2,1 UV-I 288 W/m 18,0 km/h (3 Bft)
13.04.2013 12:30 12,6 C 14,0 C 73 % 1017,0 hPa 0,0 l/m 0 min 0 min 1,2 UV-I 288 W/m 10,3 km/h (2 Bft)
13.04.2013 12:32 12,6 C 13,4 C 73 % 1017,0 hPa 0,0 l/m 0 min 0 min 0,5 UV-I 288 W/m 7,7 km/h (2 Bft)
13.04.2013 12:34 12,7 C 13,4 C 74 % 1017,1 hPa 0,0 l/m 0 min 0 min 0,5 UV-I 185 W/m 7,7 km/h (2 Bft)
13.04.2013 12:36 12,7 C 12,9 C 73 % 1017,1 hPa 0,0 l/m 0 min 0 min 0,0 UV-I 190 W/m 15,4 km/h (3 Bft)
13.04.2013 12:38 12,6 C 12,3 C 72 % 1017,2 hPa 0,0 l/m 0 min 0 min 0,8 UV-I 281 W/m 23,2 km/h (4 Bft)
13.04.2013 12:40 12,6 C 12,9 C 72 % 1017,2 hPa 0,0 l/m 0 min 0 min 1,3 UV-I 323 W/m 15,4 km/h (3 Bft)
13.04.2013 12:42 12,6 C 14,0 C 73 % 1017,2 hPa 0,0 l/m 2 min 0 min 2,2 UV-I 462 W/m 5,1 km/h (1 Bft)
13.04.2013 12:44 12,7 C 14,6 C 73 % 1017,2 hPa 0,0 l/m 0 min 0 min 1,2 UV-I 373 W/m 10,3 km/h (2 Bft)
13.04.2013 12:46 12,8 C 14,6 C 74 % 1017,2 hPa 0,0 l/m 0 min 0 min 0,8 UV-I 327 W/m 15,4 km/h (3 Bft)
13.04.2013 12:48 12,8 C 13,4 C 71 % 1017,1 hPa 0,0 l/m 0 min 0 min 0,0 UV-I 185 W/m 18,0 km/h (3 Bft)
13.04.2013 12:50 12,8 C 12,9 C 71 % 1017,1 hPa 0,0 l/m 0 min 0 min 0,0 UV-I 148 W/m 12,9 km/h (3 Bft)
13.04.2013 12:52 12,8 C 12,3 C 72 % 1017,2 hPa 0,0 l/m 0 min 0 min 0,0 UV-I 141 W/m 12,9 km/h (3 Bft)
13.04.2013 12:54 12,7 C 11,8 C 72 % 1017,1 hPa 0,0 l/m 0 min 0 min 0,0 UV-I 144 W/m 20,6 km/h (4 Bft)
13.04.2013 12:56 12,7 C 11,8 C 72 % 1017,2 hPa 0,0 l/m 0 min 0 min 0,0 UV-I 144 W/m 15,4 km/h (3 Bft)
13.04.2013 12:58 12,6 C 11,8 C 73 % 1017,2 hPa 0,0 l/m 0 min 0 min 0,0 UV-I 146 W/m 12,9 km/h (3 Bft)
13.04.2013 13:00 12,6 C 11,8 C 72 % 1017,3 hPa 0,0 l/m 0 min 0 min 0,0 UV-I 139 W/m 10,3 km/h (2 Bft)
13.04.2013 13:02 12,5 C 11,2 C 72 % 1017,2 hPa 0,0 l/m 0 min 0 min 0,0 UV-I 132 W/m 18,0 km/h (3 Bft)
13.04.2013 13:04 12,4 C 11,2 C 72 % 1017,3 hPa 0,0 l/m 0 min 0 min 0,0 UV-I 169 W/m 18,0 km/h (3 Bft)
13.04.2013 13:06 12,3 C 11,8 C 72 % 1017,2 hPa 0,0 l/m 0 min 0 min 0,0 UV-I 142 W/m 12,9 km/h (3 Bft)
13.04.2013 13:08 12,3 C 11,8 C 73 % 1017,2 hPa 0,0 l/m 0 min 0 min 0,0 UV-I 121 W/m 7,7 km/h (2 Bft)
13.04.2013 13:10 12,3 C 11,8 C 73 % 1017,2 hPa 0,0 l/m 0 min 0 min 0,0 UV-I 116 W/m 12,9 km/h (3 Bft)
13.04.2013 13:12 12,3 C 11,2 C 72 % 1017,3 hPa 0,0 l/m 0 min 0 min 0,0 UV-I 95 W/m 15,4 km/h (3 Bft)
13.04.2013 13:14 12,2 C 11,2 C 72 % 1017,2 hPa 0,0 l/m 0 min 2 min 0,0 UV-I 86 W/m 7,7 km/h (2 Bft)
13.04.2013 13:16 12,2 C 10,7 C 72 % 1017,3 hPa 0,0 l/m 0 min 2 min 0,0 UV-I 83 W/m 12,9 km/h (3 Bft)
13.04.2013 13:18 12,2 C 10,1 C 74 % 1017,4 hPa 0,0 l/m 0 min 2 min 0,0 UV-I 83 W/m 12,9 km/h (3 Bft)
13.04.2013 13:20 12,1 C 9,0 C 74 % 1017,4 hPa 0,0 l/m 0 min 2 min 0,0 UV-I 77 W/m 23,2 km/h (4 Bft)
13.04.2013 13:22 11,9 C 9,0 C 75 % 1017,4 hPa 0,0 l/m 0 min 2 min 0,0 UV-I 69 W/m 10,3 km/h (2 Bft)
13.04.2013 13:24 11,9 C 9,0 C 75 % 1017,4 hPa 0,0 l/m 0 min 2 min 0,0 UV-I 67 W/m 10,3 km/h (2 Bft)
13.04.2013 13:26 11,8 C 9,0 C 75 % 1017,4 hPa 0,0 l/m 0 min 2 min 0,0 UV-I 76 W/m 23,2 km/h (4 Bft)
13.04.2013 13:28 11,7 C 9,0 C 76 % 1017,5 hPa 0,0 l/m 0 min 2 min 0,0 UV-I 100 W/m 5,1 km/h (1 Bft)
13.04.2013 13:30 11,6 C 9,0 C 76 % 1017,5 hPa 0,0 l/m 0 min 2 min 0,0 UV-I 165 W/m 10,3 km/h (2 Bft)
13.04.2013 13:32 11,6 C 9,6 C 77 % 1017,5 hPa 0,0 l/m 0 min 2 min 0,0 UV-I 229 W/m 12,9 km/h (3 Bft)
13.04.2013 13:34 11,6 C 10,1 C 79 % 1017,4 hPa 0,0 l/m 0 min 0 min 0,7 UV-I 274 W/m 7,7 km/h (2 Bft)
13.04.2013 13:36 11,6 C 10,7 C 80 % 1017,4 hPa 0,0 l/m 0 min 0 min 0,9 UV-I 288 W/m 0,0 km/h (0 Bft)
13.04.2013 13:38 11,6 C 11,2 C 80 % 1017,4 hPa 0,0 l/m 0 min 0 min 0,7 UV-I 257 W/m 12,9 km/h (3 Bft)
13.04.2013 13:40 11,6 C 11,2 C 79 % 1017,4 hPa 0,0 l/m 0 min 0 min 0,6 UV-I 246 W/m 7,7 km/h (2 Bft)
13.04.2013 13:42 11,7 C 11,8 C 78 % 1017,3 hPa 0,0 l/m 0 min 0 min 0,7 UV-I 276 W/m 18,0 km/h (3 Bft)
13.04.2013 13:44 11,7 C 12,3 C 78 % 1017,3 hPa 0,0 l/m 0 min 0 min 0,9 UV-I 297 W/m 12,9 km/h (3 Bft)
13.04.2013 13:46 11,7 C 12,3 C 78 % 1017,3 hPa 0,0 l/m 0 min 0 min 1,0 UV-I 308 W/m 10,3 km/h (2 Bft)
13.04.2013 13:48 11,8 C 12,9 C 78 % 1017,4 hPa 0,0 l/m 0 min 0 min 0,0 UV-I 195 W/m 2,6 km/h (1 Bft)
13.04.2013 13:50 11,9 C 12,3 C 78 % 1017,4 hPa 0,0 l/m 0 min 0 min 0,0 UV-I 149 W/m 7,7 km/h (2 Bft)
13.04.2013 13:52 11,9 C 12,3 C 78 % 1017,5 hPa 0,0 l/m 0 min 0 min 0,0 UV-I 120 W/m 0,0 km/h (0 Bft)
13.04.2013 13:54 12,0 C 11,8 C 78 % 1017,4 hPa 0,0 l/m 0 min 0 min 0,0 UV-I 90 W/m 5,1 km/h (1 Bft)
13.04.2013 13:56 12,1 C 11,2 C 77 % 1017,4 hPa 0,0 l/m 0 min 2 min 0,0 UV-I 77 W/m 5,1 km/h (1 Bft)
13.04.2013 13:58 12,1 C 11,2 C 77 % 1017,4 hPa 0,0 l/m 0 min 2 min 0,0 UV-I 76 W/m 2,6 km/h (1 Bft)
13.04.2013 14:00 12,1 C 10,7 C 78 % 1017,4 hPa 0,0 l/m 0 min 2 min 0,0 UV-I 86 W/m 2,6 km/h (1 Bft)
13.04.2013 14:02 12,1 C 10,7 C 77 % 1017,5 hPa 0,0 l/m 0 min 0 min 0,0 UV-I 90 W/m 15,4 km/h (3 Bft)
13.04.2013 14:04 12,1 C 10,7 C 77 % 1017,5 hPa 0,0 l/m 0 min 2 min 0,0 UV-I 102 W/m 10,3 km/h (2 Bft)
13.04.2013 14:06 12,1 C 10,7 C 77 % 1017,5 hPa 0,0 l/m 0 min 0 min 0,0 UV-I 118 W/m 10,3 km/h (2 Bft)
13.04.2013 14:08 12,1 C 11,2 C 77 % 1017,6 hPa 0,0 l/m 0 min 0 min 0,0 UV-I 135 W/m 10,3 km/h (2 Bft)
13.04.2013 14:10 12,0 C 11,2 C 77 % 1017,6 hPa 0,0 l/m 0 min 0 min 0,0 UV-I 169 W/m 12,9 km/h (3 Bft)
13.04.2013 14:12 12,0 C 11,8 C 77 % 1017,6 hPa 0,0 l/m 0 min 0 min 0,5 UV-I 237 W/m 7,7 km/h (2 Bft)
13.04.2013 14:14 12,0 C 12,3 C 78 % 1017,6 hPa 0,0 l/m 0 min 0 min 0,7 UV-I 260 W/m 2,6 km/h (1 Bft)
13.04.2013 14:16 12,1 C 12,3 C 78 % 1017,6 hPa 0,0 l/m 0 min 0 min 0,6 UV-I 232 W/m 7,7 km/h (2 Bft)
13.04.2013 14:18 12,1 C 12,9 C 78 % 1017,7 hPa 0,0 l/m 0 min 0 min 0,5 UV-I 218 W/m 5,1 km/h (1 Bft)
13.04.2013 14:20 12,1 C 12,9 C 78 % 1017,7 hPa 0,0 l/m 0 min 0 min 0,5 UV-I 227 W/m 5,1 km/h (1 Bft)
13.04.2013 14:22 12,2 C 12,9 C 78 % 1017,7 hPa 0,0 l/m 0 min 0 min 0,5 UV-I 195 W/m 2,6 km/h (1 Bft)
13.04.2013 14:24 12,2 C 12,9 C 77 % 1017,8 hPa 0,0 l/m 0 min 0 min 0,0 UV-I 165 W/m 2,6 km/h (1 Bft)
13.04.2013 14:26 12,2 C 12,3 C 76 % 1017,8 hPa 0,0 l/m 0 min 0 min 0,0 UV-I 158 W/m 10,3 km/h (2 Bft)
13.04.2013 14:28 12,2 C 12,3 C 76 % 1017,8 hPa 0,0 l/m 0 min 0 min 0,0 UV-I 172 W/m 10,3 km/h (2 Bft)
13.04.2013 14:30 12,2 C 12,3 C 76 % 1017,8 hPa 0,0 l/m 0 min 0 min 0,0 UV-I 197 W/m 0,0 km/h (0 Bft)
13.04.2013 14:32 12,3 C 12,3 C 76 % 1017,8 hPa 0,0 l/m 0 min 0 min 0,7 UV-I 281 W/m 7,7 km/h (2 Bft)
13.04.2013 14:34 12,3 C 12,9 C 77 % 1017,8 hPa 0,0 l/m 0 min 0 min 2,0 UV-I 357 W/m 0,0 km/h (0 Bft)
13.04.2013 14:36 12,4 C 13,4 C 77 % 1017,7 hPa 0,0 l/m 2 min 0 min 1,3 UV-I 480 W/m 7,7 km/h (2 Bft)
13.04.2013 14:38 12,6 C 14,0 C 77 % 1017,8 hPa 0,0 l/m 0 min 0 min 1,2 UV-I 318 W/m 5,1 km/h (1 Bft)
13.04.2013 14:40 12,7 C 14,0 C 76 % 1017,8 hPa 0,0 l/m 0 min 0 min 1,2 UV-I 292 W/m 10,3 km/h (2 Bft)
13.04.2013 14:42 12,7 C 13,4 C 75 % 1017,8 hPa 0,0 l/m 0 min 0 min 0,9 UV-I 244 W/m 7,7 km/h (2 Bft)
13.04.2013 14:44 12,8 C 13,4 C 74 % 1017,7 hPa 0,0 l/m 0 min 0 min 0,8 UV-I 236 W/m 5,1 km/h (1 Bft)
13.04.2013 14:46 12,8 C 13,4 C 74 % 1017,7 hPa 0,0 l/m 0 min 0 min 0,8 UV-I 229 W/m 0,0 km/h (0 Bft)
13.04.2013 14:48 12,9 C 13,4 C 74 % 1017,7 hPa 0,0 l/m 0 min 0 min 0,6 UV-I 209 W/m 2,6 km/h (1 Bft)
13.04.2013 14:50 12,9 C 13,4 C 73 % 1017,7 hPa 0,0 l/m 0 min 0 min 0,0 UV-I 183 W/m 7,7 km/h (2 Bft)
13.04.2013 14:52 13,0 C 13,4 C 72 % 1017,7 hPa 0,0 l/m 2 min 0 min 1,4 UV-I 624 W/m 5,1 km/h (1 Bft)
13.04.2013 14:54 13,1 C 13,4 C 72 % 1017,7 hPa 0,0 l/m 0 min 0 min 0,0 UV-I 267 W/m 5,1 km/h (1 Bft)
13.04.2013 14:56 13,1 C 13,4 C 71 % 1017,7 hPa 0,0 l/m 0 min 0 min 0,5 UV-I 218 W/m 12,9 km/h (3 Bft)
13.04.2013 14:58 13,1 C 13,4 C 71 % 1017,7 hPa 0,0 l/m 0 min 0 min 0,5 UV-I 188 W/m 5,1 km/h (1 Bft)
13.04.2013 15:00 13,2 C 12,9 C 70 % 1017,7 hPa 0,0 l/m 0 min 0 min 0,0 UV-I 181 W/m 10,3 km/h (2 Bft)
13.04.2013 15:02 13,1 C 12,9 C 70 % 1017,6 hPa 0,0 l/m 0 min 0 min 0,0 UV-I 204 W/m 0,0 km/h (0 Bft)
13.04.2013 15:06 13,3 C 13,4 C 71 % 1017,7 hPa 0,0 l/m 0 min 0 min 0,6 UV-I 195 W/m 10,3 km/h (2 Bft)
13.04.2013 15:08 13,3 C 13,4 C 71 % 1017,7 hPa 0,0 l/m 0 min 0 min 0,7 UV-I 171 W/m 2,6 km/h (1 Bft)
13.04.2013 15:10 13,3 C 13,4 C 70 % 1017,7 hPa 0,0 l/m 2 min 0 min 2,0 UV-I 492 W/m 10,3 km/h (2 Bft)
13.04.2013 15:12 13,5 C 14,0 C 71 % 1017,6 hPa 0,0 l/m 2 min 0 min 2,1 UV-I 738 W/m 12,9 km/h (3 Bft)
13.04.2013 15:14 13,6 C 14,0 C 70 % 1017,6 hPa 0,0 l/m 2 min 0 min 0,8 UV-I 747 W/m 5,1 km/h (1 Bft)
13.04.2013 15:16 13,7 C 13,4 C 68 % 1017,6 hPa 0,0 l/m 0 min 0 min 0,7 UV-I 186 W/m 5,1 km/h (1 Bft)
13.04.2013 15:18 13,8 C 13,4 C 67 % 1017,6 hPa 0,0 l/m 0 min 0 min 1,8 UV-I 206 W/m 5,1 km/h (1 Bft)
13.04.2013 15:20 13,8 C 14,0 C 67 % 1017,7 hPa 0,0 l/m 0 min 0 min 1,9 UV-I 206 W/m 12,9 km/h (3 Bft)
13.04.2013 15:22 13,9 C 14,6 C 67 % 1017,6 hPa 0,0 l/m 0 min 0 min 2,1 UV-I 206 W/m 5,1 km/h (1 Bft)
13.04.2013 15:24 14,1 C 15,7 C 66 % 1017,6 hPa 0,0 l/m 2 min 0 min 2,1 UV-I 816 W/m 12,9 km/h (3 Bft)
13.04.2013 15:26 14,2 C 15,7 C 66 % 1017,5 hPa 0,0 l/m 2 min 0 min 2,0 UV-I 803 W/m 12,9 km/h (3 Bft)
13.04.2013 15:28 14,3 C 15,1 C 64 % 1017,6 hPa 0,0 l/m 2 min 0 min 1,9 UV-I 817 W/m 10,3 km/h (2 Bft)
13.04.2013 15:30 14,6 C 15,7 C 65 % 1017,5 hPa 0,0 l/m 2 min 0 min 1,6 UV-I 719 W/m 5,1 km/h (1 Bft)
13.04.2013 15:32 14,8 C 15,7 C 62 % 1017,6 hPa 0,0 l/m 2 min 0 min 2,0 UV-I 719 W/m 15,4 km/h (3 Bft)
13.04.2013 15:34 15,0 C 16,2 C 60 % 1017,6 hPa 0,0 l/m 2 min 0 min 1,9 UV-I 819 W/m 15,4 km/h (3 Bft)
13.04.2013 15:36 15,1 C 16,2 C 57 % 1017,5 hPa 0,0 l/m 2 min 0 min 1,7 UV-I 791 W/m 25,7 km/h (4 Bft)
13.04.2013 15:38 15,2 C 15,7 C 56 % 1017,5 hPa 0,0 l/m 2 min 0 min 0,8 UV-I 770 W/m 23,2 km/h (4 Bft)
13.04.2013 15:40 15,2 C 14,6 C 55 % 1017,6 hPa 0,0 l/m 0 min 0 min 0,7 UV-I 221 W/m 23,2 km/h (4 Bft)
13.04.2013 15:42 15,2 C 14,6 C 55 % 1017,5 hPa 0,0 l/m 0 min 0 min 0,7 UV-I 279 W/m 12,9 km/h (3 Bft)
13.04.2013 15:44 15,2 C 15,1 C 57 % 1017,5 hPa 0,0 l/m 2 min 0 min 1,6 UV-I 796 W/m 12,9 km/h (3 Bft)
13.04.2013 15:46 15,2 C 15,1 C 56 % 1017,6 hPa 0,0 l/m 0 min 0 min 0,7 UV-I 255 W/m 20,6 km/h (4 Bft)
13.04.2013 15:48 15,1 C 14,6 C 54 % 1017,5 hPa 0,0 l/m 0 min 0 min 1,7 UV-I 255 W/m 20,6 km/h (4 Bft)
13.04.2013 15:50 15,1 C 15,1 C 54 % 1017,5 hPa 0,0 l/m 0 min 0 min 1,0 UV-I 269 W/m 10,3 km/h (2 Bft)
13.04.2013 15:52 15,2 C 15,1 C 54 % 1017,6 hPa 0,0 l/m 0 min 0 min 0,8 UV-I 269 W/m 18,0 km/h (3 Bft)
13.04.2013 15:54 15,2 C 15,1 C 53 % 1017,6 hPa 0,0 l/m 0 min 0 min 1,6 UV-I 269 W/m 23,2 km/h (4 Bft)
13.04.2013 15:56 15,2 C 15,1 C 53 % 1017,5 hPa 0,0 l/m 2 min 0 min 1,6 UV-I 694 W/m 18,0 km/h (3 Bft)
13.04.2013 15:58 15,2 C 14,6 C 53 % 1017,6 hPa 0,0 l/m 0 min 0 min 1,5 UV-I 141 W/m 15,4 km/h (3 Bft)
13.04.2013 16:00 15,2 C 14,6 C 53 % 1017,7 hPa 0,0 l/m 0 min 0 min 0,6 UV-I 141 W/m 23,2 km/h (4 Bft)
13.04.2013 16:02 15,2 C 14,6 C 53 % 1017,7 hPa 0,0 l/m 0 min 0 min 1,0 UV-I 181 W/m 18,0 km/h (3 Bft)
13.04.2013 16:04 15,2 C 14,6 C 52 % 1017,6 hPa 0,0 l/m 2 min 0 min 0,9 UV-I 708 W/m 15,4 km/h (3 Bft)
13.04.2013 16:06 15,2 C 14,6 C 51 % 1017,7 hPa 0,0 l/m 0 min 0 min 0,5 UV-I 163 W/m 25,7 km/h (4 Bft)
13.04.2013 16:08 15,1 C 14,6 C 52 % 1017,7 hPa 0,0 l/m 0 min 0 min 0,5 UV-I 207 W/m 20,6 km/h (4 Bft)
13.04.2013 16:10 15,2 C 15,1 C 53 % 1017,7 hPa 0,0 l/m 2 min 0 min 1,4 UV-I 705 W/m 18,0 km/h (3 Bft)
13.04.2013 16:12 15,3 C 16,8 C 53 % 1017,6 hPa 0,0 l/m 2 min 0 min 1,4 UV-I 698 W/m 15,4 km/h (3 Bft)
13.04.2013 16:14 15,3 C 17,9 C 52 % 1017,8 hPa 0,0 l/m 2 min 0 min 1,4 UV-I 657 W/m 20,6 km/h (4 Bft)
13.04.2013 16:16 15,4 C 17,9 C 51 % 1017,6 hPa 0,0 l/m 2 min 0 min 1,4 UV-I 642 W/m 18,0 km/h (3 Bft)
13.04.2013 16:18 15,6 C 18,4 C 52 % 1017,9 hPa 0,0 l/m 2 min 0 min 1,3 UV-I 606 W/m 28,3 km/h (4 Bft)
13.04.2013 16:20 15,6 C 18,4 C 51 % 1017,8 hPa 0,0 l/m 2 min 0 min 1,3 UV-I 612 W/m 18,0 km/h (3 Bft)
13.04.2013 16:22 15,7 C 17,9 C 52 % 1017,8 hPa 0,0 l/m 2 min 0 min 1,3 UV-I 617 W/m 28,3 km/h (4 Bft)
13.04.2013 16:24 15,7 C 17,9 C 52 % 1017,8 hPa 0,0 l/m 2 min 0 min 1,3 UV-I 622 W/m 23,2 km/h (4 Bft)
13.04.2013 16:26 15,7 C 16,8 C 51 % 1017,7 hPa 0,0 l/m 2 min 0 min 1,2 UV-I 601 W/m 10,3 km/h (2 Bft)
13.04.2013 16:28 15,8 C 15,7 C 52 % 1017,8 hPa 0,0 l/m 0 min 0 min 0,0 UV-I 113 W/m 20,6 km/h (4 Bft)
13.04.2013 16:30 15,7 C 14,6 C 51 % 1017,8 hPa 0,0 l/m 0 min 0 min 0,0 UV-I 111 W/m 10,3 km/h (2 Bft)
13.04.2013 16:32 15,5 C 14,6 C 50 % 1017,8 hPa 0,0 l/m 0 min 0 min 0,5 UV-I 127 W/m 18,0 km/h (3 Bft)
13.04.2013 16:34 15,4 C 15,1 C 51 % 1017,8 hPa 0,0 l/m 2 min 0 min 1,1 UV-I 659 W/m 15,4 km/h (3 Bft)
13.04.2013 16:36 15,5 C 15,7 C 52 % 1017,7 hPa 0,0 l/m 2 min 0 min 0,0 UV-I 657 W/m 12,9 km/h (3 Bft)
13.04.2013 16:38 15,6 C 15,1 C 52 % 1017,8 hPa 0,0 l/m 0 min 0 min 0,0 UV-I 281 W/m 23,2 km/h (4 Bft)
13.04.2013 16:40 15,6 C 15,1 C 52 % 1017,9 hPa 0,0 l/m 0 min 0 min 0,0 UV-I 137 W/m 12,9 km/h (3 Bft)
13.04.2013 16:42 15,5 C 14,6 C 52 % 1017,9 hPa 0,0 l/m 0 min 0 min 0,0 UV-I 144 W/m 12,9 km/h (3 Bft)
13.04.2013 16:44 15,4 C 14,6 C 52 % 1017,8 hPa 0,0 l/m 2 min 0 min 1,0 UV-I 633 W/m 12,9 km/h (3 Bft)
13.04.2013 16:46 15,4 C 15,1 C 51 % 1017,7 hPa 0,0 l/m 2 min 0 min 1,0 UV-I 621 W/m 18,0 km/h (3 Bft)
13.04.2013 16:48 15,4 C 15,7 C 52 % 1017,7 hPa 0,0 l/m 2 min 0 min 1,0 UV-I 601 W/m 25,7 km/h (4 Bft)
13.04.2013 16:50 15,6 C 15,7 C 52 % 1017,7 hPa 0,0 l/m 2 min 0 min 0,8 UV-I 555 W/m 12,9 km/h (3 Bft)
13.04.2013 16:52 15,7 C 16,2 C 54 % 1017,8 hPa 0,0 l/m 2 min 0 min 0,8 UV-I 526 W/m 2,6 km/h (1 Bft)
13.04.2013 16:54 15,8 C 15,7 C 52 % 1017,7 hPa 0,0 l/m 2 min 0 min 0,7 UV-I 506 W/m 20,6 km/h (4 Bft)
13.04.2013 16:56 15,8 C 15,1 C 50 % 1018,0 hPa 0,0 l/m 0 min 0 min 0,0 UV-I 113 W/m 20,6 km/h (4 Bft)
13.04.2013 16:58 15,7 C 14,6 C 52 % 1018,0 hPa 0,0 l/m 0 min 0 min 0,0 UV-I 128 W/m 20,6 km/h (4 Bft)
13.04.2013 17:00 15,5 C 14,0 C 50 % 1017,8 hPa 0,0 l/m 0 min 0 min 0,0 UV-I 144 W/m 28,3 km/h (4 Bft)
13.04.2013 17:02 15,4 C 14,0 C 52 % 1017,9 hPa 0,0 l/m 0 min 0 min 0,0 UV-I 148 W/m 12,9 km/h (3 Bft)
13.04.2013 17:04 15,3 C 14,0 C 51 % 1017,8 hPa 0,0 l/m 0 min 0 min 0,0 UV-I 162 W/m 15,4 km/h (3 Bft)
13.04.2013 17:06 15,2 C 14,0 C 52 % 1017,9 hPa 0,0 l/m 0 min 0 min 0,0 UV-I 158 W/m 15,4 km/h (3 Bft)
13.04.2013 17:08 15,1 C 14,6 C 53 % 1017,9 hPa 0,0 l/m 2 min 0 min 0,6 UV-I 536 W/m 10,3 km/h (2 Bft)
13.04.2013 17:10 15,1 C 14,6 C 53 % 1017,8 hPa 0,0 l/m 2 min 0 min 0,6 UV-I 520 W/m 7,7 km/h (2 Bft)
13.04.2013 17:12 15,2 C 15,1 C 52 % 1017,8 hPa 0,0 l/m 0 min 0 min 0,0 UV-I 160 W/m 12,9 km/h (3 Bft)
13.04.2013 17:14 15,2 C 14,6 C 52 % 1017,8 hPa 0,0 l/m 0 min 0 min 0,0 UV-I 144 W/m 20,6 km/h (4 Bft)
13.04.2013 17:16 15,2 C 14,6 C 51 % 1017,8 hPa 0,0 l/m 2 min 0 min 0,5 UV-I 506 W/m 18,0 km/h (3 Bft)
13.04.2013 17:18 15,3 C 15,1 C 51 % 1017,8 hPa 0,0 l/m 2 min 0 min 0,6 UV-I 538 W/m 23,2 km/h (4 Bft)
13.04.2013 17:20 15,3 C 15,1 C 50 % 1018,0 hPa 0,0 l/m 2 min 0 min 0,5 UV-I 462 W/m 20,6 km/h (4 Bft)
13.04.2013 17:22 15,3 C 14,6 C 50 % 1017,9 hPa 0,0 l/m 2 min 0 min 0,0 UV-I 462 W/m 18,0 km/h (3 Bft)
13.04.2013 17:24 15,2 C 14,0 C 51 % 1017,9 hPa 0,0 l/m 2 min 0 min 0,0 UV-I 462 W/m 18,0 km/h (3 Bft)
13.04.2013 17:26 15,2 C 14,6 C 51 % 1018,1 hPa 0,0 l/m 2 min 0 min 0,0 UV-I 445 W/m 15,4 km/h (3 Bft)
13.04.2013 17:28 15,2 C 14,6 C 51 % 1017,9 hPa 0,0 l/m 2 min 0 min 0,0 UV-I 466 W/m 15,4 km/h (3 Bft)
13.04.2013 17:30 15,2 C 14,6 C 52 % 1017,8 hPa 0,0 l/m 2 min 0 min 0,0 UV-I 432 W/m 10,3 km/h (2 Bft)
13.04.2013 17:32 15,3 C 14,6 C 52 % 1017,9 hPa 0,0 l/m 0 min 0 min 0,0 UV-I 123 W/m 10,3 km/h (2 Bft)
13.04.2013 17:34 15,3 C 14,0 C 51 % 1017,8 hPa 0,0 l/m 0 min 0 min 0,0 UV-I 123 W/m 15,4 km/h (3 Bft)
13.04.2013 17:36 15,3 C 14,6 C 52 % 1017,8 hPa 0,0 l/m 2 min 0 min 0,0 UV-I 334 W/m 15,4 km/h (3 Bft)
13.04.2013 17:38 15,3 C 14,6 C 52 % 1017,8 hPa 0,0 l/m 2 min 0 min 0,0 UV-I 287 W/m 15,4 km/h (3 Bft)
13.04.2013 17:40 15,4 C 14,6 C 51 % 1017,8 hPa 0,0 l/m 2 min 0 min 0,0 UV-I 288 W/m 12,9 km/h (3 Bft)
13.04.2013 17:42 15,4 C 14,6 C 53 % 1017,8 hPa 0,0 l/m 2 min 0 min 0,0 UV-I 297 W/m 10,3 km/h (2 Bft)
13.04.2013 17:44 15,4 C 14,0 C 50 % 1018,0 hPa 0,0 l/m 2 min 0 min 0,0 UV-I 308 W/m 25,7 km/h (4 Bft)
13.04.2013 17:46 15,4 C 14,6 C 51 % 1017,9 hPa 0,0 l/m 2 min 0 min 0,0 UV-I 234 W/m 23,2 km/h (4 Bft)
13.04.2013 17:48 15,4 C 14,6 C 51 % 1018,0 hPa 0,0 l/m 2 min 0 min 0,0 UV-I 380 W/m 18,0 km/h (3 Bft)
13.04.2013 17:50 15,4 C 14,6 C 51 % 1018,0 hPa 0,0 l/m 0 min 0 min 0,0 UV-I 127 W/m 18,0 km/h (3 Bft)
13.04.2013 17:52 15,4 C 14,0 C 51 % 1018,0 hPa 0,0 l/m 0 min 0 min 0,0 UV-I 125 W/m 12,9 km/h (3 Bft)
13.04.2013 17:54 15,4 C 14,6 C 52 % 1018,0 hPa 0,0 l/m 2 min 0 min 0,0 UV-I 301 W/m 10,3 km/h (2 Bft)
13.04.2013 17:56 15,4 C 14,6 C 52 % 1018,0 hPa 0,0 l/m 2 min 0 min 0,0 UV-I 308 W/m 15,4 km/h (3 Bft)
13.04.2013 17:58 15,4 C 14,6 C 52 % 1017,9 hPa 0,0 l/m 2 min 0 min 0,0 UV-I 352 W/m 12,9 km/h (3 Bft)
13.04.2013 18:00 15,4 C 14,6 C 53 % 1017,9 hPa 0,0 l/m 2 min 0 min 0,0 UV-I 329 W/m 7,7 km/h (2 Bft)
13.04.2013 18:02 15,5 C 14,6 C 53 % 1018,0 hPa 0,0 l/m 2 min 0 min 0,0 UV-I 301 W/m 10,3 km/h (2 Bft)
13.04.2013 18:06 15,6 C 14,6 C 52 % 1018,0 hPa 0,0 l/m 2 min 0 min 0,0 UV-I 241 W/m 12,9 km/h (3 Bft)
13.04.2013 18:08 15,6 C 14,6 C 52 % 1018,0 hPa 0,0 l/m 2 min 0 min 0,0 UV-I 230 W/m 18,0 km/h (3 Bft)
13.04.2013 18:10 15,5 C 14,6 C 53 % 1017,9 hPa 0,0 l/m 2 min 0 min 0,0 UV-I 223 W/m 20,6 km/h (4 Bft)
13.04.2013 18:12 15,5 C 14,6 C 53 % 1017,9 hPa 0,0 l/m 2 min 0 min 0,0 UV-I 192 W/m 12,9 km/h (3 Bft)
13.04.2013 18:14 15,4 C 14,6 C 53 % 1017,9 hPa 0,0 l/m 2 min 0 min 0,0 UV-I 229 W/m 12,9 km/h (3 Bft)
13.04.2013 18:16 15,4 C 14,0 C 52 % 1017,9 hPa 0,0 l/m 2 min 0 min 0,0 UV-I 206 W/m 18,0 km/h (3 Bft)
13.04.2013 18:18 15,4 C 14,0 C 52 % 1018,0 hPa 0,0 l/m 2 min 0 min 0,0 UV-I 262 W/m 15,4 km/h (3 Bft)
13.04.2013 18:20 15,4 C 14,6 C 53 % 1017,9 hPa 0,0 l/m 2 min 0 min 0,0 UV-I 271 W/m 10,3 km/h (2 Bft)
13.04.2013 18:22 15,4 C 14,6 C 53 % 1017,9 hPa 0,0 l/m 0 min 0 min 0,0 UV-I 158 W/m 10,3 km/h (2 Bft)
13.04.2013 18:24 15,4 C 14,6 C 52 % 1017,9 hPa 0,0 l/m 2 min 0 min 0,0 UV-I 209 W/m 18,0 km/h (3 Bft)
13.04.2013 18:26 15,4 C 14,6 C 52 % 1017,9 hPa 0,0 l/m 2 min 0 min 0,0 UV-I 214 W/m 12,9 km/h (3 Bft)
13.04.2013 18:28 15,4 C 14,6 C 53 % 1017,9 hPa 0,0 l/m 2 min 0 min 0,0 UV-I 227 W/m 10,3 km/h (2 Bft)
13.04.2013 18:30 15,4 C 14,6 C 53 % 1017,9 hPa 0,0 l/m 2 min 0 min 0,0 UV-I 251 W/m 10,3 km/h (2 Bft)
13.04.2013 18:32 15,5 C 14,6 C 54 % 1018,0 hPa 0,0 l/m 2 min 0 min 0,0 UV-I 262 W/m 12,9 km/h (3 Bft)
13.04.2013 18:34 15,5 C 14,6 C 52 % 1018,2 hPa 0,0 l/m 2 min 0 min 0,0 UV-I 232 W/m 15,4 km/h (3 Bft)
13.04.2013 18:36 15,5 C 14,6 C 53 % 1018,1 hPa 0,0 l/m 2 min 0 min 0,0 UV-I 237 W/m 12,9 km/h (3 Bft)
13.04.2013 18:38 15,5 C 14,6 C 52 % 1018,2 hPa 0,0 l/m 2 min 0 min 0,0 UV-I 248 W/m 15,4 km/h (3 Bft)
13.04.2013 18:40 15,5 C 14,6 C 52 % 1018,2 hPa 0,0 l/m 2 min 0 min 0,0 UV-I 246 W/m 15,4 km/h (3 Bft)
13.04.2013 18:42 15,5 C 14,6 C 53 % 1018,1 hPa 0,0 l/m 2 min 0 min 0,0 UV-I 216 W/m 10,3 km/h (2 Bft)
13.04.2013 18:44 15,5 C 14,6 C 52 % 1018,2 hPa 0,0 l/m 2 min 0 min 0,0 UV-I 188 W/m 15,4 km/h (3 Bft)
13.04.2013 18:46 15,4 C 14,0 C 53 % 1018,2 hPa 0,0 l/m 2 min 0 min 0,0 UV-I 195 W/m 18,0 km/h (3 Bft)
13.04.2013 18:48 15,4 C 14,0 C 53 % 1018,2 hPa 0,0 l/m 2 min 0 min 0,0 UV-I 149 W/m 20,6 km/h (4 Bft)
13.04.2013 18:50 15,4 C 14,0 C 54 % 1018,1 hPa 0,0 l/m 0 min 0 min 0,0 UV-I 116 W/m 7,7 km/h (2 Bft)
13.04.2013 18:52 15,4 C 14,0 C 53 % 1018,1 hPa 0,0 l/m 0 min 0 min 0,0 UV-I 100 W/m 7,7 km/h (2 Bft)
13.04.2013 18:54 15,3 C 13,4 C 53 % 1018,2 hPa 0,0 l/m 0 min 0 min 0,0 UV-I 74 W/m 7,7 km/h (2 Bft)
13.04.2013 18:56 15,3 C 13,4 C 53 % 1018,3 hPa 0,0 l/m 0 min 0 min 0,0 UV-I 67 W/m 15,4 km/h (3 Bft)
13.04.2013 18:58 15,3 C 13,4 C 54 % 1018,3 hPa 0,0 l/m 0 min 0 min 0,0 UV-I 46 W/m 12,9 km/h (3 Bft)
13.04.2013 19:00 15,2 C 13,4 C 54 % 1018,3 hPa 0,0 l/m 0 min 0 min 0,0 UV-I 40 W/m 7,7 km/h (2 Bft)
13.04.2013 19:02 15,2 C 12,9 C 54 % 1018,2 hPa 0,0 l/m 0 min 0 min 0,0 UV-I 40 W/m 5,1 km/h (1 Bft)
13.04.2013 19:04 15,1 C 12,9 C 53 % 1018,3 hPa 0,0 l/m 0 min 0 min 0,0 UV-I 42 W/m 2,6 km/h (1 Bft)
13.04.2013 19:06 15,0 C 12,9 C 54 % 1018,2 hPa 0,0 l/m 0 min 0 min 0,0 UV-I 40 W/m 2,6 km/h (1 Bft)
13.04.2013 19:08 15,0 C 12,9 C 54 % 1018,3 hPa 0,0 l/m 0 min 0 min 0,0 UV-I 40 W/m 7,7 km/h (2 Bft)
13.04.2013 19:10 15,0 C 12,9 C 55 % 1018,3 hPa 0,0 l/m 0 min 0 min 0,0 UV-I 40 W/m 5,1 km/h (1 Bft)
13.04.2013 19:12 15,0 C 12,3 C 54 % 1018,3 hPa 0,0 l/m 0 min 0 min 0,0 UV-I 46 W/m 0,0 km/h (0 Bft)
13.04.2013 19:14 14,9 C 12,3 C 55 % 1018,3 hPa 0,0 l/m 0 min 0 min 0,0 UV-I 49 W/m 0,0 km/h (0 Bft)
13.04.2013 19:16 14,9 C 12,3 C 55 % 1018,3 hPa 0,0 l/m 0 min 0 min 0,0 UV-I 54 W/m 7,7 km/h (2 Bft)
13.04.2013 19:18 14,8 C 12,3 C 56 % 1018,4 hPa 0,0 l/m 0 min 0 min 0,0 UV-I 56 W/m 0,0 km/h (0 Bft)
13.04.2013 19:20 14,7 C 12,3 C 56 % 1018,4 hPa 0,0 l/m 0 min 0 min 0,0 UV-I 54 W/m 5,1 km/h (1 Bft)
13.04.2013 19:22 14,7 C 12,3 C 56 % 1018,4 hPa 0,0 l/m 0 min 0 min 0,0 UV-I 49 W/m 10,3 km/h (2 Bft)
13.04.2013 19:24 14,6 C 12,3 C 56 % 1018,4 hPa 0,0 l/m 0 min 0 min 0,0 UV-I 47 W/m 7,7 km/h (2 Bft)
13.04.2013 19:26 14,6 C 12,9 C 57 % 1018,5 hPa 0,0 l/m 0 min 0 min 0,0 UV-I 44 W/m 2,6 km/h (1 Bft)
13.04.2013 19:28 14,5 C 12,9 C 57 % 1018,4 hPa 0,0 l/m 0 min 0 min 0,0 UV-I 37 W/m 0,0 km/h (0 Bft)
13.04.2013 19:30 14,4 C 12,3 C 57 % 1018,5 hPa 0,0 l/m 0 min 0 min 0,0 UV-I 35 W/m 2,6 km/h (1 Bft)
13.04.2013 19:32 14,4 C 12,3 C 58 % 1018,5 hPa 0,0 l/m 0 min 0 min 0,0 UV-I 32 W/m 0,0 km/h (0 Bft)
13.04.2013 19:34 14,3 C 12,3 C 57 % 1018,5 hPa 0,0 l/m 0 min 0 min 0,0 UV-I 30 W/m 0,0 km/h (0 Bft)
13.04.2013 19:36 14,3 C 12,3 C 57 % 1018,5 hPa 0,0 l/m 0 min 0 min 0,0 UV-I 28 W/m 0,0 km/h (0 Bft)
13.04.2013 19:38 14,3 C 12,3 C 57 % 1018,5 hPa 0,0 l/m 0 min 0 min 0,0 UV-I 30 W/m 0,0 km/h (0 Bft)
13.04.2013 19:40 14,3 C 12,3 C 57 % 1018,5 hPa 0,0 l/m 0 min 0 min 0,0 UV-I 30 W/m 0,0 km/h (0 Bft)
13.04.2013 19:42 14,3 C 12,3 C 57 % 1018,4 hPa 0,0 l/m 0 min 0 min 0,0 UV-I 28 W/m 0,0 km/h (0 Bft)
13.04.2013 19:44 14,3 C 12,3 C 58 % 1018,5 hPa 0,0 l/m 0 min 0 min 0,0 UV-I 25 W/m 0,0 km/h (0 Bft)
13.04.2013 19:46 14,2 C 12,3 C 58 % 1018,5 hPa 0,0 l/m 0 min 0 min 0,0 UV-I 19 W/m 7,7 km/h (2 Bft)
13.04.2013 19:48 14,2 C 12,3 C 58 % 1018,6 hPa 0,0 l/m 0 min 0 min 0,0 UV-I 14 W/m 12,9 km/h (3 Bft)
13.04.2013 19:50 14,2 C 12,3 C 57 % 1018,6 hPa 0,0 l/m 0 min 0 min 0,0 UV-I 11 W/m 7,7 km/h (2 Bft)
13.04.2013 19:52 14,1 C 12,3 C 58 % 1018,5 hPa 0,0 l/m 0 min 0 min 0,0 UV-I 11 W/m 2,6 km/h (1 Bft)
13.04.2013 19:54 14,1 C 12,3 C 58 % 1018,5 hPa 0,0 l/m 0 min 0 min 0,0 UV-I 9 W/m 2,6 km/h (1 Bft)
13.04.2013 19:56 14,1 C 12,3 C 58 % 1018,6 hPa 0,0 l/m 0 min 0 min 0,0 UV-I 9 W/m 0,0 km/h (0 Bft)
13.04.2013 19:58 14,1 C 12,3 C 58 % 1018,6 hPa 0,0 l/m 0 min 0 min 0,0 UV-I 7 W/m 2,6 km/h (1 Bft)
13.04.2013 20:00 14,1 C 11,8 C 59 % 1018,6 hPa 0,0 l/m 0 min 0 min 0,0 UV-I 5 W/m 0,0 km/h (0 Bft)
13.04.2013 20:02 14,0 C 11,8 C 59 % 1018,5 hPa 0,0 l/m 0 min 0 min 0,0 UV-I 5 W/m 7,7 km/h (2 Bft)
13.04.2013 20:04 14,0 C 11,8 C 59 % 1018,6 hPa 0,0 l/m 0 min 0 min 0,0 UV-I 5 W/m 0,0 km/h (0 Bft)
13.04.2013 20:06 14,0 C 11,8 C 59 % 1018,6 hPa 0,0 l/m 0 min 0 min 0,0 UV-I 0 W/m 0,0 km/h (0 Bft)
13.04.2013 20:08 13,9 C 11,8 C 59 % 1018,7 hPa 0,0 l/m 0 min 0 min 0,0 UV-I 0 W/m 0,0 km/h (0 Bft)
13.04.2013 20:10 13,9 C 11,8 C 58 % 1018,7 hPa 0,0 l/m 0 min 0 min 0,0 UV-I 0 W/m 2,6 km/h (1 Bft)
13.04.2013 20:12 13,9 C 11,8 C 58 % 1018,7 hPa 0,0 l/m 0 min 0 min 0,0 UV-I 0 W/m 2,6 km/h (1 Bft)
13.04.2013 20:14 13,9 C 11,8 C 58 % 1018,7 hPa 0,0 l/m 0 min 0 min 0,0 UV-I 0 W/m 5,1 km/h (1 Bft)
13.04.2013 20:16 13,9 C 11,8 C 58 % 1018,7 hPa 0,0 l/m 0 min 2 min 0,0 UV-I 0 W/m 0,0 km/h (0 Bft)
13.04.2013 20:18 13,9 C 11,8 C 58 % 1018,8 hPa 0,0 l/m 0 min 0 min 0,0 UV-I 0 W/m 0,0 km/h (0 Bft)
13.04.2013 20:20 13,8 C 11,8 C 58 % 1018,8 hPa 0,0 l/m 0 min 0 min 0,0 UV-I 0 W/m 0,0 km/h (0 Bft)
13.04.2013 20:22 13,8 C 11,8 C 59 % 1018,8 hPa 0,0 l/m 0 min 0 min 0,0 UV-I 0 W/m 5,1 km/h (1 Bft)
13.04.2013 20:24 13,8 C 11,8 C 59 % 1018,8 hPa 0,0 l/m 0 min 2 min 0,0 UV-I 0 W/m 7,7 km/h (2 Bft)
13.04.2013 20:26 13,8 C 11,2 C 59 % 1018,8 hPa 0,0 l/m 0 min 2 min 0,0 UV-I 0 W/m 2,6 km/h (1 Bft)
13.04.2013 20:28 13,8 C 11,2 C 60 % 1018,9 hPa 0,0 l/m 0 min 0 min 0,0 UV-I 0 W/m 0,0 km/h (0 Bft)
13.04.2013 20:30 13,8 C 11,2 C 60 % 1018,8 hPa 0,0 l/m 0 min 0 min 0,0 UV-I 0 W/m 2,6 km/h (1 Bft)
13.04.2013 20:32 13,8 C 11,2 C 60 % 1018,9 hPa 0,0 l/m 0 min 0 min 0,0 UV-I 0 W/m 5,1 km/h (1 Bft)
13.04.2013 20:34 13,7 C 11,2 C 60 % 1018,9 hPa 0,0 l/m 0 min 0 min 0,0 UV-I 0 W/m 0,0 km/h (0 Bft)
13.04.2013 20:36 13,7 C 11,2 C 60 % 1019,0 hPa 0,0 l/m 0 min 0 min 0,0 UV-I 0 W/m 0,0 km/h (0 Bft)
13.04.2013 20:38 13,7 C 11,2 C 60 % 1019,0 hPa 0,0 l/m 0 min 0 min 0,0 UV-I 0 W/m 0,0 km/h (0 Bft)
13.04.2013 20:40 13,7 C 11,2 C 61 % 1019,0 hPa 0,0 l/m 0 min 0 min 0,0 UV-I 0 W/m 7,7 km/h (2 Bft)
13.04.2013 20:42 13,7 C 11,2 C 60 % 1019,0 hPa 0,0 l/m 0 min 0 min 0,0 UV-I 0 W/m 2,6 km/h (1 Bft)
13.04.2013 20:44 13,7 C 11,2 C 60 % 1019,0 hPa 0,0 l/m 0 min 0 min 0,0 UV-I 0 W/m 0,0 km/h (0 Bft)
13.04.2013 20:46 13,6 C 11,2 C 60 % 1019,0 hPa 0,0 l/m 0 min 0 min 0,0 UV-I 0 W/m 0,0 km/h (0 Bft)
13.04.2013 20:48 13,6 C 11,2 C 61 % 1019,0 hPa 0,0 l/m 0 min 0 min 0,0 UV-I 0 W/m 0,0 km/h (0 Bft)
13.04.2013 20:50 13,6 C 11,2 C 61 % 1019,0 hPa 0,0 l/m 0 min 0 min 0,0 UV-I 0 W/m 7,7 km/h (2 Bft)
13.04.2013 20:52 13,6 C 11,2 C 61 % 1019,0 hPa 0,0 l/m 0 min 0 min 0,0 UV-I 0 W/m 0,0 km/h (0 Bft)
13.04.2013 20:54 13,5 C 11,2 C 61 % 1019,0 hPa 0,0 l/m 0 min 0 min 0,0 UV-I 0 W/m 0,0 km/h (0 Bft)
13.04.2013 20:56 13,5 C 11,2 C 62 % 1019,1 hPa 0,0 l/m 0 min 0 min 0,0 UV-I 0 W/m 10,3 km/h (2 Bft)
13.04.2013 20:58 13,4 C 11,2 C 61 % 1019,1 hPa 0,0 l/m 0 min 0 min 0,0 UV-I 0 W/m 7,7 km/h (2 Bft)
13.04.2013 21:00 13,4 C 11,2 C 61 % 1019,1 hPa 0,0 l/m 0 min 0 min 0,0 UV-I 0 W/m 12,9 km/h (3 Bft)
13.04.2013 21:02 13,4 C 11,2 C 61 % 1019,1 hPa 0,0 l/m 0 min 0 min 0,0 UV-I 0 W/m 7,7 km/h (2 Bft)
13.04.2013 21:06 13,4 C 11,8 C 61 % 1019,2 hPa 0,0 l/m 0 min 0 min 0,0 UV-I 0 W/m 2,6 km/h (1 Bft)
13.04.2013 21:08 13,4 C 11,8 C 62 % 1019,3 hPa 0,0 l/m 0 min 0 min 0,0 UV-I 0 W/m 2,6 km/h (1 Bft)
13.04.2013 21:10 13,4 C 11,8 C 62 % 1019,3 hPa 0,0 l/m 0 min 0 min 0,0 UV-I 0 W/m 0,0 km/h (0 Bft)
13.04.2013 21:12 13,4 C 11,8 C 62 % 1019,4 hPa 0,0 l/m 0 min 0 min 0,0 UV-I 0 W/m 18,0 km/h (3 Bft)
13.04.2013 21:14 13,3 C 11,8 C 62 % 1019,3 hPa 0,0 l/m 0 min 2 min 0,0 UV-I 0 W/m 12,9 km/h (3 Bft)
13.04.2013 21:16 13,4 C 11,8 C 62 % 1019,4 hPa 0,0 l/m 0 min 2 min 0,0 UV-I 0 W/m 7,7 km/h (2 Bft)
13.04.2013 21:18 13,4 C 11,2 C 63 % 1019,4 hPa 0,0 l/m 0 min 0 min 0,0 UV-I 0 W/m 0,0 km/h (0 Bft)
13.04.2013 21:20 13,3 C 11,2 C 63 % 1019,4 hPa 0,0 l/m 0 min 0 min 0,0 UV-I 0 W/m 7,7 km/h (2 Bft)
13.04.2013 21:22 13,3 C 11,2 C 63 % 1019,4 hPa 0,0 l/m 0 min 0 min 0,0 UV-I 0 W/m 2,6 km/h (1 Bft)
13.04.2013 21:24 13,3 C 11,2 C 63 % 1019,4 hPa 0,0 l/m 0 min 0 min 0,0 UV-I 0 W/m 7,7 km/h (2 Bft)
13.04.2013 21:26 13,3 C 11,8 C 63 % 1019,4 hPa 0,0 l/m 0 min 0 min 0,0 UV-I 0 W/m 0,0 km/h (0 Bft)
13.04.2013 21:28 13,3 C 11,8 C 63 % 1019,4 hPa 0,0 l/m 0 min 0 min 0,0 UV-I 0 W/m 0,0 km/h (0 Bft)
13.04.2013 21:30 13,3 C 11,2 C 63 % 1019,5 hPa 0,0 l/m 0 min 0 min 0,0 UV-I 0 W/m 5,1 km/h (1 Bft)
13.04.2013 21:32 13,3 C 11,8 C 63 % 1019,4 hPa 0,0 l/m 0 min 0 min 0,0 UV-I 0 W/m 12,9 km/h (3 Bft)
13.04.2013 21:34 13,3 C 11,8 C 63 % 1019,5 hPa 0,0 l/m 0 min 0 min 0,0 UV-I 0 W/m 0,0 km/h (0 Bft)
13.04.2013 21:36 13,3 C 11,8 C 63 % 1019,5 hPa 0,0 l/m 0 min 0 min 0,0 UV-I 0 W/m 2,6 km/h (1 Bft)
13.04.2013 21:38 13,3 C 11,8 C 63 % 1019,5 hPa 0,0 l/m 0 min 0 min 0,0 UV-I 0 W/m 0,0 km/h (0 Bft)
13.04.2013 21:40 13,3 C 11,2 C 63 % 1019,6 hPa 0,0 l/m 0 min 0 min 0,0 UV-I 0 W/m 0,0 km/h (0 Bft)
13.04.2013 21:42 13,3 C 11,8 C 63 % 1019,6 hPa 0,0 l/m 0 min 0 min 0,0 UV-I 0 W/m 7,7 km/h (2 Bft)
13.04.2013 21:44 13,3 C 11,8 C 63 % 1019,5 hPa 0,0 l/m 0 min 0 min 0,0 UV-I 0 W/m 18,0 km/h (3 Bft)
13.04.2013 21:46 13,3 C 11,8 C 64 % 1019,6 hPa 0,0 l/m 0 min 0 min 0,0 UV-I 0 W/m 7,7 km/h (2 Bft)
13.04.2013 21:48 13,3 C 11,8 C 64 % 1019,6 hPa 0,0 l/m 0 min 0 min 0,0 UV-I 0 W/m 12,9 km/h (3 Bft)
13.04.2013 21:50 13,3 C 11,8 C 64 % 1019,6 hPa 0,0 l/m 0 min 0 min 0,0 UV-I 0 W/m 2,6 km/h (1 Bft)
13.04.2013 21:52 13,3 C 11,8 C 64 % 1019,6 hPa 0,0 l/m 0 min 0 min 0,0 UV-I 0 W/m 15,4 km/h (3 Bft)
13.04.2013 21:54 13,3 C 11,8 C 65 % 1019,6 hPa 0,0 l/m 0 min 0 min 0,0 UV-I 0 W/m 18,0 km/h (3 Bft)
13.04.2013 21:56 13,3 C 11,8 C 65 % 1019,7 hPa 0,0 l/m 0 min 0 min 0,0 UV-I 0 W/m 15,4 km/h (3 Bft)
13.04.2013 21:58 13,3 C 11,8 C 65 % 1019,7 hPa 0,0 l/m 0 min 0 min 0,0 UV-I 0 W/m 5,1 km/h (1 Bft)
13.04.2013 22:00 13,3 C 11,8 C 65 % 1019,7 hPa 0,0 l/m 0 min 0 min 0,0 UV-I 0 W/m 2,6 km/h (1 Bft)
13.04.2013 22:02 13,3 C 11,8 C 66 % 1019,7 hPa 0,0 l/m 0 min 0 min 0,0 UV-I 0 W/m 5,1 km/h (1 Bft)
13.04.2013 22:04 13,3 C 11,8 C 66 % 1019,7 hPa 0,0 l/m 0 min 0 min 0,0 UV-I 0 W/m 10,3 km/h (2 Bft)
13.04.2013 22:06 13,3 C 11,2 C 66 % 1019,7 hPa 0,0 l/m 0 min 0 min 0,0 UV-I 0 W/m 2,6 km/h (1 Bft)
13.04.2013 22:08 13,3 C 11,2 C 66 % 1019,7 hPa 0,0 l/m 0 min 0 min 0,0 UV-I 0 W/m 7,7 km/h (2 Bft)
13.04.2013 22:10 13,3 C 11,2 C 67 % 1019,7 hPa 0,0 l/m 0 min 0 min 0,0 UV-I 0 W/m 2,6 km/h (1 Bft)
13.04.2013 22:12 13,3 C 11,2 C 67 % 1019,7 hPa 0,0 l/m 0 min 0 min 0,0 UV-I 0 W/m 7,7 km/h (2 Bft)
13.04.2013 22:14 13,2 C 11,2 C 67 % 1019,7 hPa 0,0 l/m 0 min 0 min 0,0 UV-I 0 W/m 10,3 km/h (2 Bft)
13.04.2013 22:16 13,2 C 11,2 C 67 % 1019,7 hPa 0,0 l/m 0 min 0 min 0,0 UV-I 0 W/m 2,6 km/h (1 Bft)
13.04.2013 22:18 13,2 C 11,2 C 68 % 1019,7 hPa 0,0 l/m 0 min 0 min 0,0 UV-I 0 W/m 2,6 km/h (1 Bft)
13.04.2013 22:20 13,2 C 11,2 C 68 % 1019,7 hPa 0,0 l/m 0 min 0 min 0,0 UV-I 0 W/m 2,6 km/h (1 Bft)
13.04.2013 22:22 13,2 C 11,2 C 68 % 1019,7 hPa 0,0 l/m 0 min 0 min 0,0 UV-I 0 W/m 0,0 km/h (0 Bft)
13.04.2013 22:24 13,2 C 11,2 C 68 % 1019,7 hPa 0,0 l/m 0 min 0 min 0,0 UV-I 0 W/m 10,3 km/h (2 Bft)
13.04.2013 22:26 13,1 C 11,2 C 68 % 1019,8 hPa 0,0 l/m 0 min 0 min 0,0 UV-I 0 W/m 15,4 km/h (3 Bft)
13.04.2013 22:28 13,1 C 11,2 C 68 % 1019,7 hPa 0,0 l/m 0 min 0 min 0,0 UV-I 0 W/m 10,3 km/h (2 Bft)
13.04.2013 22:30 13,1 C 11,2 C 68 % 1019,8 hPa 0,0 l/m 0 min 0 min 0,0 UV-I 0 W/m 7,7 km/h (2 Bft)
13.04.2013 22:32 13,1 C 11,2 C 69 % 1019,7 hPa 0,0 l/m 0 min 0 min 0,0 UV-I 0 W/m 15,4 km/h (3 Bft)
13.04.2013 22:34 13,1 C 11,2 C 69 % 1019,7 hPa 0,0 l/m 0 min 0 min 0,0 UV-I 0 W/m 7,7 km/h (2 Bft)
13.04.2013 22:36 13,0 C 11,2 C 69 % 1019,7 hPa 0,0 l/m 0 min 0 min 0,0 UV-I 0 W/m 10,3 km/h (2 Bft)
13.04.2013 22:38 13,0 C 11,2 C 72 % 1019,8 hPa 0,0 l/m 0 min 0 min 0,0 UV-I 0 W/m 7,7 km/h (2 Bft)
13.04.2013 22:40 13,0 C 11,2 C 70 % 1019,7 hPa 0,0 l/m 0 min 0 min 0,0 UV-I 0 W/m 2,6 km/h (1 Bft)
13.04.2013 22:42 12,9 C 11,2 C 70 % 1019,8 hPa 0,0 l/m 0 min 0 min 0,0 UV-I 0 W/m 5,1 km/h (1 Bft)
13.04.2013 22:44 12,9 C 11,2 C 71 % 1019,8 hPa 0,0 l/m 0 min 2 min 0,0 UV-I 0 W/m 7,7 km/h (2 Bft)
13.04.2013 22:46 12,9 C 10,7 C 71 % 1019,8 hPa 0,0 l/m 0 min 0 min 0,0 UV-I 0 W/m 18,0 km/h (3 Bft)
13.04.2013 22:48 12,9 C 10,7 C 72 % 1019,8 hPa 0,0 l/m 0 min 0 min 0,0 UV-I 0 W/m 18,0 km/h (3 Bft)
13.04.2013 22:50 12,8 C 10,7 C 72 % 1019,8 hPa 0,0 l/m 0 min 0 min 0,0 UV-I 0 W/m 10,3 km/h (2 Bft)
13.04.2013 22:52 12,8 C 10,7 C 73 % 1019,8 hPa 0,0 l/m 0 min 0 min 0,0 UV-I 0 W/m 10,3 km/h (2 Bft)
13.04.2013 22:54 12,8 C 10,7 C 73 % 1019,8 hPa 0,0 l/m 0 min 2 min 0,0 UV-I 0 W/m 10,3 km/h (2 Bft)
13.04.2013 22:56 12,8 C 10,7 C 74 % 1019,8 hPa 0,0 l/m 0 min 2 min 0,0 UV-I 0 W/m 5,1 km/h (1 Bft)
13.04.2013 22:58 12,7 C 10,7 C 74 % 1019,8 hPa 0,0 l/m 0 min 2 min 0,0 UV-I 0 W/m 12,9 km/h (3 Bft)
13.04.2013 23:00 12,7 C 10,7 C 74 % 1019,8 hPa 0,0 l/m 0 min 2 min 0,0 UV-I 0 W/m 7,7 km/h (2 Bft)
13.04.2013 23:02 12,7 C 10,7 C 75 % 1019,8 hPa 0,0 l/m 0 min 0 min 0,0 UV-I 0 W/m 7,7 km/h (2 Bft)
13.04.2013 23:04 12,6 C 10,7 C 75 % 1019,8 hPa 0,0 l/m 0 min 0 min 0,0 UV-I 0 W/m 2,6 km/h (1 Bft)
13.04.2013 23:06 12,6 C 10,7 C 75 % 1019,8 hPa 0,0 l/m 0 min 0 min 0,0 UV-I 0 W/m 7,7 km/h (2 Bft)
13.04.2013 23:08 12,6 C 10,7 C 75 % 1019,8 hPa 0,0 l/m 0 min 2 min 0,0 UV-I 0 W/m 5,1 km/h (1 Bft)
13.04.2013 23:10 12,5 C 10,7 C 76 % 1019,8 hPa 0,0 l/m 0 min 0 min 0,0 UV-I 0 W/m 7,7 km/h (2 Bft)
13.04.2013 23:12 12,5 C 10,1 C 76 % 1019,8 hPa 0,0 l/m 0 min 0 min 0,0 UV-I 0 W/m 5,1 km/h (1 Bft)
13.04.2013 23:14 12,4 C 10,7 C 76 % 1019,8 hPa 0,0 l/m 0 min 2 min 0,0 UV-I 0 W/m 18,0 km/h (3 Bft)
13.04.2013 23:16 12,4 C 10,7 C 76 % 1019,8 hPa 0,0 l/m 0 min 0 min 0,0 UV-I 0 W/m 12,9 km/h (3 Bft)
13.04.2013 23:18 12,4 C 10,7 C 76 % 1019,8 hPa 0,0 l/m 0 min 0 min 0,0 UV-I 0 W/m 5,1 km/h (1 Bft)
13.04.2013 23:20 12,4 C 10,7 C 77 % 1019,9 hPa 0,0 l/m 0 min 0 min 0,0 UV-I 0 W/m 5,1 km/h (1 Bft)
13.04.2013 23:22 12,3 C 10,7 C 77 % 1019,8 hPa 0,0 l/m 0 min 0 min 0,0 UV-I 0 W/m 5,1 km/h (1 Bft)
13.04.2013 23:24 12,3 C 10,7 C 77 % 1019,8 hPa 0,0 l/m 0 min 0 min 0,0 UV-I 0 W/m 7,7 km/h (2 Bft)
13.04.2013 23:26 12,3 C 10,7 C 77 % 1019,8 hPa 0,0 l/m 0 min 0 min 0,0 UV-I 0 W/m 7,7 km/h (2 Bft)
13.04.2013 23:28 12,3 C 10,1 C 77 % 1019,8 hPa 0,0 l/m 0 min 0 min 0,0 UV-I 0 W/m 0,0 km/h (0 Bft)
13.04.2013 23:30 12,3 C 10,1 C 77 % 1019,8 hPa 0,0 l/m 0 min 0 min 0,0 UV-I 0 W/m 0,0 km/h (0 Bft)
13.04.2013 23:32 12,3 C 10,1 C 77 % 1019,8 hPa 0,0 l/m 0 min 2 min 0,0 UV-I 0 W/m 0,0 km/h (0 Bft)
13.04.2013 23:34 12,3 C 10,1 C 78 % 1019,8 hPa 0,0 l/m 0 min 0 min 0,0 UV-I 0 W/m 10,3 km/h (2 Bft)
13.04.2013 23:36 12,2 C 10,1 C 78 % 1019,8 hPa 0,0 l/m 0 min 0 min 0,0 UV-I 0 W/m 5,1 km/h (1 Bft)
13.04.2013 23:38 12,2 C 10,1 C 78 % 1019,9 hPa 0,0 l/m 0 min 0 min 0,0 UV-I 0 W/m 2,6 km/h (1 Bft)
13.04.2013 23:40 12,2 C 10,1 C 78 % 1019,9 hPa 0,0 l/m 0 min 0 min 0,0 UV-I 0 W/m 2,6 km/h (1 Bft)
13.04.2013 23:42 12,2 C 10,1 C 78 % 1019,9 hPa 0,0 l/m 0 min 0 min 0,0 UV-I 0 W/m 0,0 km/h (0 Bft)
13.04.2013 23:44 12,2 C 10,1 C 78 % 1019,9 hPa 0,0 l/m 0 min 0 min 0,0 UV-I 0 W/m 2,6 km/h (1 Bft)
13.04.2013 23:46 12,2 C 10,1 C 78 % 1019,9 hPa 0,0 l/m 0 min 0 min 0,0 UV-I 0 W/m 10,3 km/h (2 Bft)
13.04.2013 23:48 12,1 C 10,1 C 78 % 1019,9 hPa 0,0 l/m 0 min 0 min 0,0 UV-I 0 W/m 15,4 km/h (3 Bft)
13.04.2013 23:50 12,1 C 10,1 C 78 % 1019,9 hPa 0,0 l/m 0 min 0 min 0,0 UV-I 0 W/m 2,6 km/h (1 Bft)
13.04.2013 23:52 12,1 C 10,1 C 78 % 1019,9 hPa 0,0 l/m 0 min 0 min 0,0 UV-I 0 W/m 7,7 km/h (2 Bft)
13.04.2013 23:54 12,1 C 10,7 C 78 % 1020,0 hPa 0,0 l/m 0 min 0 min 0,0 UV-I 0 W/m 10,3 km/h (2 Bft)
13.04.2013 23:56 12,1 C 10,7 C 79 % 1020,0 hPa 0,0 l/m 0 min 0 min 0,0 UV-I 0 W/m 7,7 km/h (2 Bft)
13.04.2013 23:58 12,1 C 10,7 C 79 % 1020,0 hPa 0,0 l/m 0 min 0 min 0,0 UV-I 0 W/m 0,0 km/h (0 Bft)
_ Min-Zeit 03:34 02:02 16:32 00:00 - - - - - 00:24
Minimum _ 8,7 C 7,3 C 50 % 1004,9 hPa - - - - - 0,0 km/h (0 Bft)
_ Max-Zeit 16:28 16:18 03:32 23:54 00:00 11:48 02:00 12:24 15:34 01:00
Maximum _ 15,8 C 18,4 C 93 % 1020,0 hPa 0,0 l/m 2 min 2 min 2,5 UV-I 819 W/m 30,9 km/h
W-SW (5 Bft)
Durchschnitt _ 11,5 C 10,6 C 75 % 1014,5 hPa #0,0 l/m #2:50 h #56 min. 1,1 UV-I 219 W/m 12,1 km/h (2 Bft)
© 2013 W. Hausmann